N4ASP-13 Weather Reports


time (UTC)temp
F
wind
direction
speed
knots
gust
knots
rain 1hr
in
rain 24hr
in
rain mn
in
humidity
%
barometer
mb
20260509021322 56 159 2.6 7.0 0.00 0.00 0.00 73 1014.9
20260509021220 56 153 3.5 7.0 0.00 0.00 0.00 73 1015.0
20260509021120 56 159 3.5 7.0 0.00 0.00 0.00 73 1014.8
20260509021021 56 160 3.5 7.0 0.00 0.00 0.00 73 1014.9
20260509020922 56 161 2.6 7.0 0.00 0.00 0.00 73 1014.8
20260509020821 56 159 2.6 7.0 0.00 0.00 0.00 72 1014.8
20260509020721 56 159 2.6 7.0 0.00 0.00 0.00 73 1014.7
20260509020620 56 163 2.6 7.0 0.00 0.00 0.00 72 1014.7
20260509020521 56 165 2.6 6.1 0.00 0.00 0.00 72 1014.7
20260509020420 56 167 2.6 6.1 0.00 0.00 0.00 72 1014.7
20260509020321 56 144 2.6 5.2 0.00 0.00 0.00 72 1014.7
20260509020220 56 173 2.6 5.2 0.00 0.00 0.00 72 1014.7
20260509020120 56 171 2.6 5.2 0.00 0.00 0.00 72 1014.8
20260509020021 56 158 2.6 6.1 0.00 0.00 0.00 72 1014.7
20260509015921 56 157 2.6 6.1 0.00 0.00 0.00 72 1014.6
20260509015820 56 157 3.5 6.1 0.00 0.00 0.00 72 1014.7
20260509015722 56 160 3.5 6.1 0.00 0.00 0.00 72 1014.7
20260509015620 56 161 3.5 6.1 0.00 0.00 0.00 72 1014.8
20260509015522 56 158 3.5 6.1 0.00 0.00 0.00 72 1014.7
20260509015420 56 163 3.5 6.1 0.00 0.00 0.00 72 1014.8
20260509015322 56 167 3.5 6.1 0.00 0.00 0.00 72 1014.8
20260509015221 56 167 3.5 6.1 0.00 0.00 0.00 71 1014.8
20260509015120 56 163 3.5 6.1 0.00 0.00 0.00 71 1014.7
20260509015022 56 162 3.5 6.1 0.00 0.00 0.00 71 1014.6
20260509014922 56 162 3.5 6.1 0.00 0.00 0.00 71 1014.7
20260509014714 56 163 2.6 6.1 0.00 0.00 0.00 71 1014.7
20260509014612 56 163 2.6 6.1 0.00 0.00 0.00 71 1014.7
20260509014514 56 162 2.6 6.1 0.00 0.00 0.00 71 1014.7
20260509014414 56 163 2.6 6.1 0.00 0.00 0.00 71 1014.8
20260509014314 56 167 2.6 6.1 0.00 0.00 0.00 71 1014.8
20260509014213 56 167 2.6 6.1 0.00 0.00 0.00 71 1014.8
20260509014112 56 167 2.6 6.1 0.00 0.00 0.00 70 1014.8
20260509014013 56 143 2.6 6.1 0.00 0.00 0.00 70 1014.8
20260509013913 56 139 2.6 6.1 0.00 0.00 0.00 70 1014.8
20260509013813 56 153 2.6 6.1 0.00 0.00 0.00 70 1014.8
20260509013713 57 155 2.6 6.1 0.00 0.00 0.00 70 1014.8
20260509013612 57 154 2.6 6.1 0.00 0.00 0.00 70 1014.7
20260509013514 57 159 2.6 7.8 0.00 0.00 0.00 70 1014.7
20260509013413 57 158 2.6 7.8 0.00 0.00 0.00 70 1014.6
20260509013313 57 158 2.6 7.8 0.00 0.00 0.00 70 1014.7
20260509013214 57 155 2.6 7.8 0.00 0.00 0.00 70 1014.7
20260509013113 57 153 2.6 7.8 0.00 0.00 0.00 70 1014.6
20260509013012 57 167 2.6 7.8 0.00 0.00 0.00 70 1014.6
20260509012912 57 167 2.6 7.8 0.00 0.00 0.00 70 1014.6
20260509012814 57 167 2.6 7.8 0.00 0.00 0.00 70 1014.6
20260509012712 57 168 2.6 7.8 0.00 0.00 0.00 70 1014.5
20260509012614 57 157 3.5 7.8 0.00 0.00 0.00 70 1014.5
20260509012512 57 157 3.5 7.0 0.00 0.00 0.00 70 1014.5
20260509012413 57 184 2.6 7.0 0.00 0.00 0.00 70 1014.5
20260509012314 57 140 2.6 7.0 0.00 0.00 0.00 70 1014.5
20260509012213 57 155 2.6 7.0 0.00 0.00 0.00 70 1014.5
20260509012113 57 147 3.5 7.0 0.00 0.00 0.00 69 1014.4
20260509012012 57 144 3.5 7.0 0.00 0.00 0.00 70 1014.5
20260509011913 57 176 3.5 7.0 0.00 0.00 0.00 70 1014.4
20260509011812 57 168 3.5 6.1 0.00 0.00 0.00 69 1014.4
20260509011713 57 161 2.6 6.1 0.00 0.00 0.00 69 1014.4
20260509011613 57 158 3.5 6.1 0.00 0.00 0.00 69 1014.5
20260509011509 57 168 3.5 6.1 0.00 0.00 0.00 69 1014.5
20260509011410 57 167 3.5 6.1 0.00 0.00 0.00 69 1014.4
20260509011308 57 167 3.5 6.1 0.00 0.00 0.00 69 1014.5
20260509011209 57 136 3.5 7.0 0.00 0.00 0.00 69 1014.5
20260509011109 57 171 3.5 7.0 0.00 0.00 0.00 69 1014.5
20260509011010 57 152 3.5 7.0 0.00 0.00 0.00 69 1014.5
20260509010908 57 150 3.5 7.0 0.00 0.00 0.00 69 1014.5
20260509010855 57 167 3.5 7.0 0.00 0.00 0.00 69 1014.5
20260509010850 57 169 3.5 7.0 0.00 0.00 0.00 68 1014.4
20260509010609 57 150 3.5 7.0 0.00 0.00 0.00 68 1014.5
20260509010509 57 163 3.5 7.0 0.00 0.00 0.00 68 1014.5
20260509010409 57 142 3.5 7.0 0.00 0.00 0.00 68 1014.6
20260509010309 57 174 2.6 7.0 0.00 0.00 0.00 68 1014.6
20260509010208 57 157 2.6 7.0 0.00 0.00 0.00 68 1014.5
20260509010110 57 148 2.6 5.2 0.00 0.00 0.00 68 1014.6
20260509010010 57 148 2.6 5.2 0.00 0.00 0.00 68 1014.6
20260509005908 57 157 2.6 5.2 0.00 0.00 0.00 68 1014.6
20260509005810 57 161 2.6 5.2 0.00 0.00 0.00 68 1014.6
20260509005708 57 137 2.6 3.5 0.00 0.00 0.00 68 1014.6
20260509005609 57 136 2.6 4.3 0.00 0.00 0.00 68 1014.6
20260509005510 57 145 2.6 4.3 0.00 0.00 0.00 68 1014.5
20260509005408 57 144 2.6 5.2 0.00 0.00 0.00 68 1014.5
20260509005310 57 144 2.6 6.1 0.00 0.00 0.00 68 1014.5
20260509005209 57 143 2.6 6.1 0.00 0.00 0.00 67 1014.5
20260509005109 57 143 2.6 6.1 0.00 0.00 0.00 68 1014.5
20260509005009 57 143 2.6 6.1 0.00 0.00 0.00 67 1014.5
20260509004909 57 155 2.6 6.1 0.00 0.00 0.00 67 1014.5
20260509004808 57 155 2.6 6.1 0.00 0.00 0.00 67 1014.5
20260509004708 57 168 2.6 6.1 0.00 0.00 0.00 67 1014.5
20260509004609 57 166 2.6 6.1 0.00 0.00 0.00 67 1014.4
20260509004508 57 166 2.6 6.1 0.00 0.00 0.00 67 1014.5
20260509004409 58 163 2.6 6.1 0.00 0.00 0.00 67 1014.5
20260509004310 58 190 2.6 5.2 0.00 0.00 0.00 67 1014.5
20260509004205 58 161 2.6 5.2 0.00 0.00 0.00 67 1014.4
20260509004104 58 161 2.6 5.2 0.00 0.00 0.00 67 1014.4
20260509004004 58 161 2.6 5.2 0.00 0.00 0.00 67 1014.4
20260509003906 58 161 2.6 5.2 0.00 0.00 0.00 66 1014.3
20260509003804 58 180 2.6 5.2 0.00 0.00 0.00 66 1014.4
20260509003704 58 175 2.6 5.2 0.00 0.00 0.00 66 1014.4
20260509003605 58 176 2.6 5.2 0.00 0.00 0.00 66 1014.3
20260509003505 58 177 2.6 5.2 0.00 0.00 0.00 66 1014.4
20260509003404 58 154 2.6 5.2 0.00 0.00 0.00 67 1014.3
20260509003306 58 153 2.6 5.2 0.00 0.00 0.00 67 1014.3
20260509003204 58 152 2.6 5.2 0.00 0.00 0.00 66 1014.3
20260509003104 58 214 2.6 5.2 0.00 0.00 0.00 66 1014.4
20260509003006 58 173 2.6 5.2 0.00 0.00 0.00 66 1014.3
20260509002905 58 167 2.6 5.2 0.00 0.00 0.00 66 1014.3
20260509002804 58 155 2.6 5.2 0.00 0.00 0.00 66 1014.3
20260509002705 58 140 2.6 5.2 0.00 0.00 0.00 66 1014.3
20260509002606 58 164 2.6 5.2 0.00 0.00 0.00 65 1014.3
20260509002505 58 163 2.6 5.2 0.00 0.00 0.00 65 1014.3
20260509002404 58 183 2.6 5.2 0.00 0.00 0.00 65 1014.3
20260509002306 58 192 2.6 5.2 0.00 0.00 0.00 65 1014.3
20260509002204 58 169 2.6 5.2 0.00 0.00 0.00 65 1014.3
20260509002104 58 169 2.6 5.2 0.00 0.00 0.00 65 1014.2
20260509002005 58 168 2.6 5.2 0.00 0.00 0.00 65 1014.2
20260509001904 58 167 2.6 5.2 0.00 0.00 0.00 65 1014.3
20260509001804 58 177 1.7 4.3 0.00 0.00 0.00 65 1014.2
20260509001706 58 177 1.7 4.3 0.00 0.00 0.00 65 1014.1
20260509001605 58 180 1.7 4.3 0.00 0.00 0.00 65 1014.1
20260509001505 59 179 2.6 5.2 0.00 0.00 0.00 64 1014.1
20260509001405 59 163 2.6 5.2 0.00 0.00 0.00 65 1014.1
20260509001305 59 168 2.6 5.2 0.00 0.00 0.00 64 1014.2
20260509001205 59 191 2.6 5.2 0.00 0.00 0.00 64 1014.2
20260509001104 59 157 2.6 5.2 0.00 0.00 0.00 64 1014.2
20260509001006 59 157 2.6 5.2 0.00 0.00 0.00 64 1014.3
20260509000901 59 186 2.6 5.2 0.00 0.00 0.00 64 1014.3
20260509000800 59 189 2.6 5.2 0.00 0.00 0.00 64 1014.2
20260509000659 59 146 2.6 5.2 0.00 0.00 0.00 64 1014.2
20260509000558 59 144 2.6 5.2 0.00 0.00 0.00 64 1014.3
20260509000457 59 176 2.6 5.2 0.00 0.00 0.00 64 1014.2
20260509000355 59 179 2.6 5.2 0.00 0.00 0.00 63 1014.2
20260509000256 59 179 2.6 5.2 0.00 0.00 0.00 63 1014.1
20260509000152 59 186 2.6 5.2 0.00 0.00 0.00 64 1014.1
20260509000051 59 186 2.6 5.2 0.00 0.00 0.00 63 1014.1
20260508235951 59 167 2.6 5.2 0.00 0.00 0.00 64 1014.0
20260508235839 59 167 2.6 5.2 0.00 0.00 0.00 63 1014.1
20260508235739 59 182 2.6 5.2 0.00 0.00 0.00 63 1014.1
20260508235638 59 182 2.6 7.8 0.00 0.00 0.00 63 1014.1
20260508235539 59 184 2.6 7.8 0.00 0.00 0.00 63 1014.1
20260508235438 59 183 2.6 7.8 0.00 0.00 0.00 63 1014.1
20260508235332 59 173 2.6 7.8 0.00 0.00 0.00 63 1014.2
20260508235233 60 155 2.6 7.8 0.00 0.00 0.00 63 1014.2
20260508235132 59 151 2.6 7.8 0.00 0.00 0.00 63 1014.2
20260508235031 60 142 2.6 7.8 0.00 0.00 0.00 63 1014.2
20260508234933 60 157 2.6 7.8 0.00 0.00 0.00 63 1014.1
20260508234828 60 157 2.6 7.8 0.00 0.00 0.00 63 1014.2
20260508234728 60 157 2.6 7.8 0.00 0.00 0.00 62 1014.0
20260508234629 60 148 1.7 5.2 0.00 0.00 0.00 63 1014.1
20260508234529 60 148 1.7 5.2 0.00 0.00 0.00 62 1014.0
20260508234426 60 159 1.7 5.2 0.00 0.00 0.00 61 1014.1
20260508234315 60 174 1.7 5.2 0.00 0.00 0.00 62 1014.1
20260508234215 60 152 1.7 5.2 0.00 0.00 0.00 62 1014.1
20260508234115 60 153 1.7 5.2 0.00 0.00 0.00 62 1014.1
20260508234014 60 150 1.7 5.2 0.00 0.00 0.00 62 1014.0
20260508233914 60 148 1.7 5.2 0.00 0.00 0.00 61 1014.1
20260508233812 60 147 1.7 5.2 0.00 0.00 0.00 61 1014.0
20260508233713 60 153 1.7 5.2 0.00 0.00 0.00 61 1014.0
20260508233610 60 157 1.7 5.2 0.00 0.00 0.00 61 1014.0
20260508233511 60 153 1.7 5.2 0.00 0.00 0.00 61 1014.0
20260508233408 60 167 1.7 5.2 0.00 0.00 0.00 60 1014.0
20260508233304 60 167 1.7 5.2 0.00 0.00 0.00 60 1014.1
20260508233205 61 143 1.7 5.2 0.00 0.00 0.00 61 1014.1
20260508233104 61 145 1.7 5.2 0.00 0.00 0.00 61 1014.1
20260508233006 61 145 1.7 5.2 0.00 0.00 0.00 60 1014.2
20260508232903 61 145 1.7 5.2 0.00 0.00 0.00 60 1014.2
20260508232755 61 145 1.7 5.2 0.00 0.00 0.00 59 1014.2
20260508232655 61 145 1.7 5.2 0.00 0.00 0.00 59 1014.1
20260508232553 61 145 1.7 5.2 0.00 0.00 0.00 59 1014.1
20260508232454 61 156 1.7 5.2 0.00 0.00 0.00 59 1014.1
20260508232351 61 159 1.7 4.3 0.00 0.00 0.00 59 1014.2
20260508232252 61 158 1.7 4.3 0.00 0.00 0.00 59 1014.3
20260508232149 61 158 2.6 5.2 0.00 0.00 0.00 59 1014.1
20260508232046 61 158 2.6 7.8 0.00 0.00 0.00 59 1014.2
20260508231948 61 161 2.6 7.8 0.00 0.00 0.00 59 1014.1
20260508231844 61 161 2.6 7.8 0.00 0.00 0.00 58 1014.2
20260508231743 61 164 3.5 7.8 0.00 0.00 0.00 58 1014.1
20260508231643 61 163 2.6 7.8 0.00 0.00 0.00 58 1014.2
20260508231541 61 160 2.6 7.8 0.00 0.00 0.00 58 1014.1
20260508231440 61 163 2.6 7.8 0.00 0.00 0.00 57 1014.2
20260508231339 61 162 2.6 7.8 0.00 0.00 0.00 58 1014.3
20260508231230 61 161 2.6 7.8 0.00 0.00 0.00 57 1014.2
20260508231129 61 156 2.6 7.8 0.00 0.00 0.00 57 1014.3
20260508231030 62 191 2.6 7.0 0.00 0.00 0.00 57 1014.3
20260508230931 62 185 2.6 7.0 0.00 0.00 0.00 57 1014.3
20260508230828 62 155 2.6 7.0 0.00 0.00 0.00 58 1014.4
20260508230722 62 183 1.7 6.1 0.00 0.00 0.00 58 1014.4
20260508230622 62 163 2.6 6.1 0.00 0.00 0.00 58 1014.3
20260508230522 62 163 2.6 8.7 0.00 0.00 0.00 57 1014.2
20260508230423 62 165 2.6 8.7 0.00 0.00 0.00 57 1014.2
20260508230323 62 155 2.6 8.7 0.00 0.00 0.00 58 1014.2
20260508230219 62 159 3.5 8.7 0.00 0.00 0.00 57 1014.2
20260508230116 62 158 3.5 8.7 0.00 0.00 0.00 57 1014.4
20260508230017 62 151 3.5 8.7 0.00 0.00 0.00 56 1014.3
20260508225916 62 154 3.5 8.7 0.00 0.00 0.00 58 1014.3
20260508225816 62 156 3.5 8.7 0.00 0.00 0.00 56 1014.4
20260508225706 62 184 3.5 8.7 0.00 0.00 0.00 55 1014.4
20260508225605 62 199 3.5 8.7 0.00 0.00 0.00 55 1014.3
20260508225506 62 163 3.5 8.7 0.00 0.00 0.00 56 1014.3
20260508225404 62 186 2.6 8.7 0.00 0.00 0.00 56 1014.3
20260508225306 62 136 2.6 8.7 0.00 0.00 0.00 56 1014.2
20260508225201 62 163 3.5 8.7 0.00 0.00 0.00 55 1014.2
20260508225100 62 182 3.5 8.7 0.00 0.00 0.00 55 1014.2
20260508224958 63 180 3.5 8.7 0.00 0.00 0.00 54 1014.1
20260508224859 63 171 3.5 8.7 0.00 0.00 0.00 55 1014.1
20260508224758 63 156 3.5 8.7 0.00 0.00 0.00 56 1014.1
20260508224653 63 157 3.5 8.7 0.00 0.00 0.00 53 1014.1
20260508224554 63 211 3.5 7.8 0.00 0.00 0.00 54 1014.2
20260508224453 63 196 3.5 7.8 0.00 0.00 0.00 54 1014.1
20260508224353 63 209 2.6 7.8 0.00 0.00 0.00 54 1014.2
20260508224253 63 149 2.6 7.8 0.00 0.00 0.00 54 1014.1
20260508224142 63 166 1.7 7.8 0.00 0.00 0.00 53 1014.2
20260508224042 63 158 1.7 7.8 0.00 0.00 0.00 54 1014.2
20260508223943 63 101 0.9 6.1 0.00 0.00 0.00 54 1014.2
20260508223843 63 130 0.9 6.1 0.00 0.00 0.00 54 1014.2
20260508223742 63 123 0.9 6.1 0.00 0.00 0.00 54 1014.2
20260508223641 64 165 0.9 6.1 0.00 0.00 0.00 53 1014.2
20260508223540 64 173 0.9 6.1 0.00 0.00 0.00 53 1014.1
20260508223438 64 173 0.0 6.1 0.00 0.00 0.00 52 1014.1
20260508223338 64 122 0.0 4.3 0.00 0.00 0.00 53 1014.1
20260508223237 64 163 0.9 5.2 0.00 0.00 0.00 53 1014.1
20260508223134 64 168 0.9 5.2 0.00 0.00 0.00 52 1014.1
20260508223033 64 132 0.9 5.2 0.00 0.00 0.00 53 1014.1
20260508222932 64 178 0.9 5.2 0.00 0.00 0.00 52 1014.1
20260508222833 64 161 0.9 5.2 0.00 0.00 0.00 52 1014.2
20260508222731 64 138 0.9 5.2 0.00 0.00 0.00 52 1014.1
20260508222624 64 133 0.9 5.2 0.00 0.00 0.00 52 1014.3
20260508222521 64 133 0.9 5.2 0.00 0.00 0.00 51 1014.1
20260508222422 64 146 0.9 5.2 0.00 0.00 0.00 52 1014.1
20260508222320 64 202 0.9 5.2 0.00 0.00 0.00 51 1014.1
20260508222220 64 143 0.9 4.3 0.00 0.00 0.00 51 1014.1
20260508222117 64 147 0.0 4.3 0.00 0.00 0.00 50 1014.1
20260508222015 64 137 0.0 2.6 0.00 0.00 0.00 50 1014.1
20260508221915 64 140 0.0 1.7 0.00 0.00 0.00 49 1014.0
20260508221815 64 184 0.0 0.0 0.00 0.00 0.00 50 1014.0
20260508221714 64 149 0.0 0.0 0.00 0.00 0.00 50 1014.0
20260508221612 64 151 0.0 0.0 0.00 0.00 0.00 50 1014.0
20260508221513 64 164 0.0 0.0 0.00 0.00 0.00 49 1014.1
20260508221412 64 161 0.0 0.0 0.00 0.00 0.00 50 1014.1
20260508221311 64 153 0.0 0.0 0.00 0.00 0.00 49 1014.1
20260508221209 64 147 0.0 0.0 0.00 0.00 0.00 50 1014.1
20260508221100 64 144 0.0 0.0 0.00 0.00 0.00 49 1014.1
20260508220958 64 157 0.0 0.0 0.00 0.00 0.00 49 1014.1
20260508220859 64 163 0.0 0.0 0.00 0.00 0.00 49 1014.2
20260508220759 64 163 0.0 0.0 0.00 0.00 0.00 49 1014.1
20260508220659 64 163 0.0 0.0 0.00 0.00 0.00 49 1014.1
20260508220553 64 246 0.0 0.0 0.00 0.00 0.00 49 1014.1
20260508220452 64 150 0.0 0.0 0.00 0.00 0.00 49 1013.9
20260508220353 64 144 0.0 0.0 0.00 0.00 0.00 48 1013.9
20260508220252 64 144 0.0 0.0 0.00 0.00 0.00 48 1014.0
20260508220152 64 148 0.0 0.0 0.00 0.00 0.00 48 1013.9
20260508220047 64 131 0.0 0.0 0.00 0.00 0.00 48 1013.8
20260508215947 64 149 0.0 0.0 0.00 0.00 0.00 47 1013.7
20260508215847 65 126 0.0 0.0 0.00 0.00 0.00 47 1013.8
20260508215745 65 202 0.0 0.0 0.00 0.00 0.00 47 1013.8
20260508215646 65 132 0.0 1.7 0.00 0.00 0.00 46 1013.8
20260508215538 65 196 0.9 3.5 0.00 0.00 0.00 48 1013.7
20260508215438 65 184 0.9 5.2 0.00 0.00 0.00 47 1013.7
20260508215339 64 132 0.9 6.1 0.00 0.00 0.00 46 1013.7
20260508215238 64 156 1.7 6.1 0.00 0.00 0.00 46 1013.8
20260508215136 64 167 1.7 6.1 0.00 0.00 0.00 47 1013.7
20260508215033 64 121 2.6 7.0 0.00 0.00 0.00 47 1013.7
20260508214934 64 134 2.6 7.0 0.00 0.00 0.00 49 1013.7
20260508214835 64 134 2.6 7.0 0.00 0.00 0.00 49 1013.7
20260508214732 64 134 3.5 7.0 0.00 0.00 0.00 48 1013.8
20260508214631 64 133 3.5 7.0 0.00 0.00 0.00 47 1013.7
20260508214523 64 115 3.5 7.0 0.00 0.00 0.00 48 1013.7
20260508214424 64 102 2.6 7.0 0.00 0.00 0.00 46 1013.8
20260508214325 64 138 2.6 7.0 0.00 0.00 0.00 45 1013.8
20260508214225 64 137 2.6 7.0 0.00 0.00 0.00 46 1013.8
20260508214125 64 136 2.6 6.1 0.00 0.00 0.00 47 1013.8
20260508214013 64 167 2.6 6.1 0.00 0.00 0.00 47 1013.8
20260508213914 64 134 2.6 6.1 0.00 0.00 0.00 45 1013.9
20260508213814 64 133 1.7 6.1 0.00 0.00 0.00 46 1013.9
20260508213715 64 131 1.7 6.1 0.00 0.00 0.00 47 1013.9
20260508213614 64 131 1.7 6.1 0.00 0.00 0.00 46 1013.9
20260508213512 64 171 1.7 6.1 0.00 0.00 0.00 45 1013.9
20260508213410 64 128 0.9 5.2 0.00 0.00 0.00 45 1013.9
20260508213309 64 107 0.9 5.2 0.00 0.00 0.00 44 1013.9
20260508213207 64 165 0.9 5.2 0.00 0.00 0.00 44 1013.9
20260508213109 65 143 0.0 5.2 0.00 0.00 0.00 44 1014.0
20260508213002 65 123 0.0 4.3 0.00 0.00 0.00 45 1014.0
20260508212902 65 128 0.0 0.0 0.00 0.00 0.00 45 1013.9
20260508212803 65 126 0.0 0.0 0.00 0.00 0.00 43 1013.9
20260508212702 65 129 0.0 0.0 0.00 0.00 0.00 46 1013.9
20260508212602 65 121 0.0 0.0 0.00 0.00 0.00 46 1013.9
20260508212454 65 121 0.0 0.0 0.00 0.00 0.00 44 1013.9
20260508212352 65 152 0.0 0.0 0.00 0.00 0.00 42 1014.0
20260508212252 65 153 0.0 0.0 0.00 0.00 0.00 42 1013.9
20260508212151 65 182 0.0 0.0 0.00 0.00 0.00 44 1013.9
20260508212053 65 151 0.0 0.0 0.00 0.00 0.00 44 1013.9
20260508211950 65 181 0.0 0.0 0.00 0.00 0.00 42 1014.0
20260508211851 65 151 0.0 0.0 0.00 0.00 0.00 45 1014.0
20260508211751 65 148 0.0 0.0 0.00 0.00 0.00 44 1014.0
20260508211649 65 150 0.0 0.0 0.00 0.00 0.00 46 1013.9
20260508211546 65 172 0.0 0.0 0.00 0.00 0.00 45 1014.0
20260508211447 65 136 0.0 0.0 0.00 0.00 0.00 45 1014.0
20260508211345 65 137 0.0 0.0 0.00 0.00 0.00 46 1014.0
20260508211244 65 204 0.0 0.0 0.00 0.00 0.00 45 1014.0
20260508211143 65 167 0.0 0.0 0.00 0.00 0.00 46 1014.0
20260508211041 65 168 0.0 0.0 0.00 0.00 0.00 47 1014.1
20260508210935 65 170 0.0 0.0 0.00 0.00 0.00 45 1014.0
20260508210834 65 171 0.0 0.0 0.00 0.00 0.00 45 1014.0
20260508210735 65 132 0.0 0.0 0.00 0.00 0.00 45 1014.1
20260508210632 65 134 0.0 0.0 0.00 0.00 0.00 45 1014.0
20260508210530 65 117 0.0 0.0 0.00 0.00 0.00 45 1014.0
20260508210429 65 132 0.0 0.0 0.00 0.00 0.00 47 1014.0
20260508210328 65 178 0.0 0.0 0.00 0.00 0.00 44 1014.0
20260508210228 65 200 0.0 0.0 0.00 0.00 0.00 46 1014.1
20260508210127 65 159 0.0 0.0 0.00 0.00 0.00 45 1014.1
20260508210025 65 110 0.0 0.0 0.00 0.00 0.00 44 1014.0
20260508205920 65 150 0.0 0.0 0.00 0.00 0.00 45 1014.0
20260508205819 65 150 0.0 0.0 0.00 0.00 0.00 44 1014.1
20260508205719 65 150 0.0 0.0 0.00 0.00 0.00 44 1014.0
20260508205618 65 150 0.0 0.0 0.00 0.00 0.00 43 1014.0
20260508205519 65 153 0.0 0.0 0.00 0.00 0.00 43 1014.2
20260508205409 65 161 0.0 0.0 0.00 0.00 0.00 44 1014.1
20260508205310 65 144 0.0 0.0 0.00 0.00 0.00 44 1014.1
20260508205209 65 165 0.0 0.0 0.00 0.00 0.00 47 1014.2
20260508205111 65 153 0.0 0.0 0.00 0.00 0.00 46 1014.3
20260508205009 65 201 0.0 0.0 0.00 0.00 0.00 45 1014.3
20260508204902 65 162 0.0 0.0 0.00 0.00 0.00 45 1014.3
20260508204801 65 158 0.0 0.0 0.00 0.00 0.00 45 1014.4
20260508204702 65 143 0.0 0.0 0.00 0.00 0.00 43 1014.3
20260508204601 65 124 0.0 0.0 0.00 0.00 0.00 45 1014.3
20260508204502 65 105 0.0 0.0 0.00 0.00 0.00 46 1014.4
20260508204401 65 126 0.0 0.0 0.00 0.00 0.00 45 1014.3
20260508204300 65 120 0.0 0.0 0.00 0.00 0.00 45 1014.4
20260508204159 65 134 0.0 0.0 0.00 0.00 0.00 44 1014.3
20260508204059 65 134 0.0 0.0 0.00 0.00 0.00 45 1014.4
20260508203957 65 135 0.0 0.0 0.00 0.00 0.00 44 1014.4
20260508203850 65 124 0.0 0.0 0.00 0.00 0.00 43 1014.4
20260508203747 65 175 0.0 0.0 0.00 0.00 0.00 44 1014.4
20260508203646 65 150 0.0 0.0 0.00 0.00 0.00 45 1014.4
20260508203547 65 178 0.0 0.0 0.00 0.00 0.00 44 1014.5
20260508203447 65 119 0.0 0.0 0.00 0.00 0.00 43 1014.4
20260508203340 65 152 0.0 0.0 0.00 0.00 0.00 45 1014.4
20260508203240 65 105 0.0 0.0 0.00 0.00 0.00 44 1014.4
20260508203141 65 102 0.0 0.0 0.00 0.00 0.00 45 1014.5
20260508203040 65 102 0.0 0.0 0.00 0.00 0.00 43 1014.4
20260508202941 65 144 0.0 0.0 0.00 0.00 0.00 44 1014.5
20260508202839 65 157 0.0 0.0 0.00 0.00 0.00 43 1014.6
20260508202738 65 120 0.0 0.0 0.00 0.00 0.00 42 1014.6
20260508202639 65 123 0.0 0.0 0.00 0.00 0.00 42 1014.5
20260508202538 65 113 0.0 0.0 0.00 0.00 0.00 43 1014.5
20260508202435 65 115 0.0 0.0 0.00 0.00 0.00 43 1014.5
20260508202325 65 119 0.0 0.0 0.00 0.00 0.00 44 1014.6
20260508202224 65 87 0.0 0.0 0.00 0.00 0.00 41 1014.7
20260508202124 65 128 0.0 0.0 0.00 0.00 0.00 41 1014.7
20260508202025 65 112 0.0 0.0 0.00 0.00 0.00 39 1014.7
20260508201929 65 115 0.0 0.0 0.00 0.00 0.00 42 1014.8
20260508201820 65 123 0.0 0.0 0.00 0.00 0.00 40 1014.8
20260508201721 65 153 0.0 0.0 0.00 0.00 0.00 40 1014.9
20260508201620 65 141 0.0 0.0 0.00 0.00 0.00 40 1015.0
20260508201521 65 112 0.0 0.0 0.00 0.00 0.00 40 1015.0
20260508201419 65 197 0.0 0.0 0.00 0.00 0.00 39 1015.1
20260508201319 65 177 0.0 0.0 0.00 0.00 0.00 39 1015.3
20260508201217 65 148 0.0 0.0 0.00 0.00 0.00 40 1015.3
20260508201116 65 151 0.0 0.0 0.00 0.00 0.00 38 1015.3
20260508201015 65 130 0.0 0.0 0.00 0.00 0.00 39 1015.3
20260508200913 66 144 0.0 0.0 0.00 0.00 0.00 40 1015.3
20260508200801 65 120 0.0 0.0 0.00 0.00 0.00 40 1015.3
20260508200702 65 136 0.0 0.0 0.00 0.00 0.00 42 1015.4
20260508200603 65 138 0.0 0.0 0.00 0.00 0.00 40 1015.3
20260508200503 65 153 0.0 0.0 0.00 0.00 0.00 41 1015.3
20260508200402 65 157 0.0 0.0 0.00 0.00 0.00 40 1015.1
20260508200259 65 148 0.0 0.0 0.00 0.00 0.00 39 1015.1
20260508200156 65 111 0.0 0.0 0.00 0.00 0.00 39 1015.1
20260508200056 65 158 0.0 0.0 0.00 0.00 0.00 39 1015.3
20260508195956 65 123 0.0 0.0 0.00 0.00 0.00 38 1015.4
20260508195857 65 146 0.0 0.0 0.00 0.00 0.00 37 1015.3
20260508195755 65 160 0.0 0.0 0.00 0.00 0.00 39 1015.3
20260508195654 65 113 0.0 0.0 0.00 0.00 0.00 40 1015.3
20260508195554 65 174 0.0 0.0 0.00 0.00 0.00 38 1015.1
20260508195453 65 117 0.0 0.0 0.00 0.00 0.00 38 1015.1
20260508195350 65 121 0.0 0.0 0.00 0.00 0.00 38 1015.1
20260508195245 65 140 0.0 0.0 0.00 0.00 0.00 37 1015.3
20260508195145 66 154 0.0 0.0 0.00 0.00 0.00 39 1015.4
20260508195044 66 156 0.0 0.0 0.00 0.00 0.00 38 1015.4
20260508194942 66 114 0.0 0.0 0.00 0.00 0.00 36 1015.3
20260508194841 66 209 0.0 0.0 0.00 0.00 0.00 37 1015.3
20260508194741 66 143 0.0 0.0 0.00 0.00 0.00 38 1015.3
20260508194638 66 155 0.0 0.0 0.00 0.00 0.00 39 1015.4
20260508194539 66 136 0.0 0.0 0.00 0.00 0.00 38 1015.4
20260508194436 66 173 0.0 0.0 0.00 0.00 0.00 40 1015.4
20260508194335 65 168 0.0 0.0 0.00 0.00 0.00 37 1015.4
20260508194229 65 130 0.0 0.0 0.00 0.00 0.00 37 1015.4
20260508194128 65 132 0.0 0.0 0.00 0.00 0.00 39 1015.4
20260508194030 65 162 0.0 0.0 0.00 0.00 0.00 37 1015.5
20260508193928 66 208 0.0 0.0 0.00 0.00 0.00 37 1015.5
20260508193829 66 104 0.0 0.0 0.00 0.00 0.00 37 1015.5
20260508193718 66 148 0.0 0.0 0.00 0.00 0.00 37 1015.5
20260508193617 66 148 0.0 0.0 0.00 0.00 0.00 39 1015.6
20260508193519 66 128 0.0 0.0 0.00 0.00 0.00 39 1015.6
20260508193418 66 104 0.0 0.0 0.00 0.00 0.00 39 1015.5
20260508193319 66 147 0.0 0.0 0.00 0.00 0.00 37 1015.4
20260508193212 66 114 0.0 0.0 0.00 0.00 0.00 37 1015.4
20260508193111 66 163 0.0 0.0 0.00 0.00 0.00 38 1015.3
20260508193013 66 122 0.0 0.0 0.00 0.00 0.00 38 1015.5
20260508192911 66 153 0.0 0.0 0.00 0.00 0.00 39 1015.5
20260508192813 66 134 0.0 0.0 0.00 0.00 0.00 39 1015.4
20260508192707 66 110 0.0 0.0 0.00 0.00 0.00 38 1015.4
20260508192606 66 193 0.0 0.0 0.00 0.00 0.00 39 1015.5
20260508192507 66 85 0.0 0.0 0.00 0.00 0.00 38 1015.5
20260508192405 66 316 0.0 0.0 0.00 0.00 0.00 38 1015.6
20260508192307 66 153 0.0 0.0 0.00 0.00 0.00 40 1015.6
20260508192201 66 183 0.0 0.0 0.00 0.00 0.00 38 1015.6
20260508192059 66 76 0.0 0.0 0.00 0.00 0.00 38 1015.7
20260508192000 66 128 0.0 0.0 0.00 0.00 0.00 39 1015.7
20260508191858 66 152 0.0 0.9 0.00 0.00 0.00 40 1015.8
20260508191756 66 128 0.0 0.9 0.00 0.00 0.00 41 1015.7
20260508191653 66 162 0.0 0.9 0.00 0.00 0.00 41 1015.8
20260508191549 66 178 0.0 0.9 0.00 0.00 0.00 40 1015.8
20260508191451 65 156 0.0 0.9 0.00 0.00 0.00 41 1015.8
20260508191350 65 141 0.0 0.9 0.00 0.00 0.00 45 1015.8
20260508191251 65 105 0.0 0.9 0.00 0.00 0.00 42 1015.8
20260508191147 65 143 0.0 0.9 0.00 0.00 0.00 41 1015.7
20260508191046 65 122 0.0 0.9 0.00 0.00 0.00 40 1015.7
20260508190946 65 134 0.0 0.9 0.00 0.00 0.00 41 1015.7
20260508190846 65 111 0.0 0.9 0.00 0.00 0.00 41 1015.7
20260508190745 66 135 0.0 0.9 0.00 0.00 0.00 39 1015.8
20260508190636 66 155 0.0 0.9 0.00 0.00 0.00 40 1015.8
20260508190536 66 144 0.0 0.9 0.00 0.00 0.00 43 1015.7
20260508190436 66 173 0.0 0.9 0.00 0.00 0.00 41 1015.7
20260508190336 66 117 0.0 0.9 0.00 0.00 0.00 40 1015.8
20260508190234 66 127 0.0 3.5 0.00 0.00 0.00 39 1015.8
20260508190134 66 130 0.0 3.5 0.00 0.00 0.00 39 1015.8
20260508190034 66 134 0.9 4.3 0.00 0.00 0.00 41 1015.9
20260508185931 66 140 0.9 4.3 0.00 0.00 0.00 41 1015.9
20260508185829 66 163 0.9 6.1 0.00 0.00 0.00 41 1015.8
20260508185728 66 148 1.7 6.1 0.00 0.00 0.00 42 1015.9
20260508185622 66 162 1.7 6.1 0.00 0.00 0.00 44 1015.9
20260508185522 66 161 1.7 6.1 0.00 0.00 0.00 43 1015.8
20260508185422 65 169 1.7 6.1 0.00 0.00 0.00 45 1015.9
20260508185323 65 157 2.6 6.1 0.00 0.00 0.00 44 1015.9
20260508185223 65 175 2.6 6.1 0.00 0.00 0.00 40 1015.9
20260508185115 65 160 2.6 6.1 0.00 0.00 0.00 42 1015.9
20260508185017 65 140 2.6 6.1 0.00 0.00 0.00 44 1015.8
20260508184914 65 140 3.5 6.1 0.00 0.00 0.00 43 1015.9
20260508184815 64 135 3.5 7.8 0.00 0.00 0.00 43 1015.9
20260508184712 64 146 3.5 8.7 0.00 0.00 0.00 43 1016.0
20260508184606 64 51 3.5 8.7 0.00 0.00 0.00 42 1016.0
20260508184507 64 45 4.3 8.7 0.00 0.00 0.00 38 1015.9
20260508184406 64 94 4.3 8.7 0.00 0.00 0.00 39 1016.0
20260508184306 64 120 5.2 9.6 0.00 0.00 0.00 40 1016.0
20260508184206 64 128 5.2 9.6 0.00 0.00 0.00 39 1016.0
20260508184100 64 121 6.1 9.6 0.00 0.00 0.00 38 1016.0
20260508184001 64 111 6.1 10.4 0.00 0.00 0.00 39 1016.1
20260508183901 64 111 6.1 10.4 0.00 0.00 0.00 40 1016.0
20260508183800 64 117 6.1 10.4 0.00 0.00 0.00 39 1016.0
20260508183700 64 142 6.1 10.4 0.00 0.00 0.00 38 1016.0
20260508183551 65 151 6.1 10.4 0.00 0.00 0.00 38 1016.0
20260508183451 65 163 6.1 10.4 0.00 0.00 0.00 40 1016.0
20260508183350 65 114 6.1 10.4 0.00 0.00 0.00 40 1016.0
20260508183250 65 129 6.1 10.4 0.00 0.00 0.00 40 1016.0
20260508183150 65 141 5.2 10.4 0.00 0.00 0.00 41 1016.0
20260508183045 65 104 5.2 10.4 0.00 0.00 0.00 41 1016.0
20260508182946 65 133 4.3 10.4 0.00 0.00 0.00 38 1016.0
20260508182847 65 113 4.3 9.6 0.00 0.00 0.00 39 1016.1
20260508182747 65 140 4.3 9.6 0.00 0.00 0.00 38 1016.0
20260508182645 65 99 3.5 9.6 0.00 0.00 0.00 40 1016.1
20260508182539 65 110 2.6 9.6 0.00 0.00 0.00 38 1016.1
20260508182439 65 132 2.6 9.6 0.00 0.00 0.00 40 1016.1
20260508182338 65 146 2.6 9.6 0.00 0.00 0.00 38 1016.1
20260508182238 65 143 2.6 9.6 0.00 0.00 0.00 41 1016.1
20260508182138 65 130 1.7 7.0 0.00 0.00 0.00 39 1016.1
20260508182028 65 233 2.6 8.7 0.00 0.00 0.00 37 1016.1
20260508181927 65 171 2.6 8.7 0.00 0.00 0.00 39 1016.1
20260508181829 65 169 2.6 8.7 0.00 0.00 0.00 40 1016.1
20260508181729 65 121 2.6 8.7 0.00 0.00 0.00 39 1016.2
20260508181629 65 121 3.5 8.7 0.00 0.00 0.00 45 1016.1
20260508181523 65 92 3.5 8.7 0.00 0.00 0.00 44 1016.2
20260508181423 65 92 2.6 8.7 0.00 0.00 0.00 41 1016.1
20260508181324 64 72 3.5 8.7 0.00 0.00 0.00 39 1016.2
20260508181224 64 167 3.5 8.7 0.00 0.00 0.00 41 1016.2
20260508181123 64 179 3.5 8.7 0.00 0.00 0.00 40 1016.2
20260508181017 64 163 3.5 8.7 0.00 0.00 0.00 43 1016.2
20260508180915 64 99 3.5 7.8 0.00 0.00 0.00 42 1016.2
20260508180817 64 143 3.5 7.8 0.00 0.00 0.00 43 1016.1
20260508180717 64 96 3.5 7.8 0.00 0.00 0.00 39 1016.1
20260508180616 64 102 3.5 7.8 0.00 0.00 0.00 39 1016.2
20260508180507 64 126 3.5 7.8 0.00 0.00 0.00 38 1016.2
20260508180407 64 155 4.3 9.6 0.00 0.00 0.00 39 1016.3
20260508180307 64 141 4.3 11.3 0.00 0.00 0.00 40 1016.2
20260508180205 64 159 5.2 11.3 0.00 0.00 0.00 39 1016.3
20260508180106 64 180 5.2 11.3 0.00 0.00 0.00 44 1016.3
20260508175959 63 111 5.2 11.3 0.00 0.00 0.00 40 1016.3
20260508175900 63 160 6.1 11.3 0.00 0.00 0.00 40 1016.3
20260508175800 63 123 6.1 11.3 0.00 0.00 0.00 40 1016.4
20260508175700 63 101 6.1 11.3 0.00 0.00 0.00 41 1016.3
20260508175600 64 95 6.1 11.3 0.00 0.00 0.00 38 1016.4
20260508175453 64 81 6.1 11.3 0.00 0.00 0.00 39 1016.4
20260508175354 64 117 6.1 11.3 0.00 0.00 0.00 40 1016.4
20260508175255 64 120 6.1 9.6 0.00 0.00 0.00 39 1016.4
20260508175155 64 92 6.1 9.6 0.00 0.00 0.00 41 1016.4
20260508175054 64 87 6.1 9.6 0.00 0.00 0.00 40 1016.5
20260508174947 64 103 5.2 9.6 0.00 0.00 0.00 38 1016.5
20260508174843 64 80 5.2 9.6 0.00 0.00 0.00 36 1016.5
20260508174743 65 80 5.2 9.6 0.00 0.00 0.00 38 1016.5
20260508174644 65 104 5.2 9.6 0.00 0.00 0.00 38 1016.5
20260508174544 65 103 4.3 9.6 0.00 0.00 0.00 39 1016.4
20260508174438 65 103 4.3 8.7 0.00 0.00 0.00 43 1016.5
20260508174338 65 117 3.5 8.7 0.00 0.00 0.00 39 1016.5
20260508174239 65 93 3.5 8.7 0.00 0.00 0.00 39 1016.5
20260508174137 65 121 3.5 8.7 0.00 0.00 0.00 40 1016.5
20260508174038 65 125 3.5 8.7 0.00 0.00 0.00 37 1016.6
20260508173933 65 163 2.6 8.7 0.00 0.00 0.00 40 1016.6
20260508173831 65 163 3.5 8.7 0.00 0.00 0.00 39 1016.6
20260508173733 66 138 2.6 8.7 0.00 0.00 0.00 40 1016.6
20260508173631 66 105 2.6 7.8 0.00 0.00 0.00 41 1016.5
20260508173533 66 339 2.6 7.8 0.00 0.00 0.00 42 1016.6
20260508173428 65 264 2.6 7.8 0.00 0.00 0.00 40 1016.5
20260508173327 65 175 2.6 7.8 0.00 0.00 0.00 43 1016.6
20260508173223 65 159 3.5 7.8 0.00 0.00 0.00 41 1016.6
20260508173125 65 207 3.5 7.8 0.00 0.00 0.00 40 1016.6
20260508173022 65 250 3.5 7.8 0.00 0.00 0.00 40 1016.6
20260508172918 65 111 3.5 7.8 0.00 0.00 0.00 38 1016.6
20260508172815 65 136 2.6 7.8 0.00 0.00 0.00 38 1016.6
20260508172716 65 198 2.6 7.8 0.00 0.00 0.00 39 1016.7
20260508172616 65 128 2.6 7.8 0.00 0.00 0.00 40 1016.7
20260508172517 65 134 2.6 7.8 0.00 0.00 0.00 36 1016.7
20260508172409 65 185 2.6 7.8 0.00 0.00 0.00 42 1016.7
20260508172309 65 227 2.6 7.8 0.00 0.00 0.00 39 1016.9
20260508172211 65 198 2.6 6.1 0.00 0.00 0.00 39 1016.9
20260508172110 65 188 2.6 6.1 0.00 0.00 0.00 38 1016.7
20260508172011 65 132 2.6 6.1 0.00 0.00 0.00 39 1016.9
20260508171859 65 217 2.6 6.1 0.00 0.00 0.00 37 1016.9
20260508171801 65 196 2.6 6.1 0.00 0.00 0.00 40 1016.9
20260508171700 65 129 2.6 6.1 0.00 0.00 0.00 41 1016.7
20260508171559 65 101 3.5 7.8 0.00 0.00 0.00 38 1016.9
20260508171501 65 185 3.5 7.8 0.00 0.00 0.00 42 1016.7
20260508171357 65 131 3.5 7.8 0.00 0.00 0.00 38 1016.9
20260508171254 65 140 2.6 7.8 0.00 0.00 0.00 39 1016.9
20260508171155 64 110 2.6 7.8 0.00 0.00 0.00 42 1016.9
20260508171054 64 110 2.6 7.8 0.00 0.00 0.00 42 1017.0
20260508170954 64 110 3.5 7.8 0.00 0.00 0.00 40 1016.9
20260508170850 64 111 3.5 7.8 0.00 0.00 0.00 41 1016.9
20260508170748 64 110 3.5 7.8 0.00 0.00 0.00 41 1017.0
20260508170649 64 109 2.6 7.8 0.00 0.00 0.00 40 1017.0
20260508170547 64 109 2.6 7.0 0.00 0.00 0.00 44 1017.0
20260508170448 64 96 3.5 7.8 0.00 0.00 0.00 44 1016.9
20260508170342 64 115 3.5 8.7 0.00 0.00 0.00 41 1016.9
20260508170242 64 216 4.3 8.7 0.00 0.00 0.00 43 1017.0
20260508170139 64 170 3.5 8.7 0.00 0.00 0.00 41 1017.2
20260508170040 64 127 3.5 8.7 0.00 0.00 0.00 40 1017.0
20260508165939 64 116 3.5 8.7 0.00 0.00 0.00 41 1017.0
20260508165840 64 136 3.5 8.7 0.00 0.00 0.00 40 1017.1
20260508165740 64 165 2.6 8.7 0.00 0.00 0.00 41 1017.0
20260508165641 64 138 2.6 8.7 0.00 0.00 0.00 40 1017.0
20260508165540 64 140 2.6 8.7 0.00 0.00 0.00 43 1017.0
20260508165439 64 118 2.6 8.7 0.00 0.00 0.00 46 1017.0
20260508165340 64 105 2.6 8.7 0.00 0.00 0.00 44 1017.0
20260508165240 64 156 2.6 7.8 0.00 0.00 0.00 40 1017.0
20260508165139 64 141 2.6 6.1 0.00 0.00 0.00 44 1017.0
20260508165039 64 167 2.6 6.1 0.00 0.00 0.00 44 1017.1
20260508164941 64 120 3.5 7.8 0.00 0.00 0.00 43 1017.0
20260508164840 64 120 3.5 8.7 0.00 0.00 0.00 43 1017.0
20260508164743 64 121 4.3 8.7 0.00 0.00 0.00 41 1017.1
20260508164637 64 114 4.3 8.7 0.00 0.00 0.00 44 1017.0
20260508164535 64 113 3.5 8.7 0.00 0.00 0.00 42 1017.1
20260508164434 64 116 3.5 8.7 0.00 0.00 0.00 42 1017.1
20260508164334 64 174 2.6 8.7 0.00 0.00 0.00 43 1017.1
20260508164234 64 134 2.6 8.7 0.00 0.00 0.00 46 1017.1
20260508164128 64 149 3.5 8.7 0.00 0.00 0.00 44 1017.2
20260508164027 64 150 3.5 8.7 0.00 0.00 0.00 47 1017.1
20260508163929 63 126 2.6 8.7 0.00 0.00 0.00 46 1017.1
20260508163828 63 98 2.6 7.8 0.00 0.00 0.00 48 1017.1
20260508163729 63 105 2.6 6.1 0.00 0.00 0.00 49 1017.1
20260508163623 63 51 2.6 6.1 0.00 0.00 0.00 52 1017.1
20260508163523 63 24 2.6 6.1 0.00 0.00 0.00 47 1017.1
20260508163422 62 22 2.6 6.1 0.00 0.00 0.00 47 1017.1
20260508163323 62 20 3.5 6.1 0.00 0.00 0.00 48 1017.1
20260508163222 62 20 2.6 6.1 0.00 0.00 0.00 47 1017.1
20260508163122 62 19 2.6 6.1 0.00 0.00 0.00 47 1017.2
20260508163022 62 327 2.6 6.1 0.00 0.00 0.00 46 1017.3
20260508162919 62 327 2.6 6.1 0.00 0.00 0.00 45 1017.3
20260508162820 62 319 2.6 6.1 0.00 0.00 0.00 45 1017.3
20260508162719 62 323 2.6 6.1 0.00 0.00 0.00 44 1017.2
20260508162617 62 98 2.6 6.1 0.00 0.00 0.00 46 1017.4
20260508162515 62 121 2.6 6.1 0.00 0.00 0.00 46 1017.3
20260508162416 62 121 2.6 7.0 0.00 0.00 0.00 47 1017.4
20260508162313 62 117 2.6 7.0 0.00 0.00 0.00 47 1017.4
20260508162213 62 113 2.6 7.0 0.00 0.00 0.00 45 1017.4
20260508162115 62 113 2.6 7.0 0.00 0.00 0.00 47 1017.4
20260508162014 62 113 3.5 7.0 0.00 0.00 0.00 46 1017.4
20260508161913 62 113 3.5 7.0 0.00 0.00 0.00 46 1017.4
20260508161815 62 113 3.5 7.0 0.00 0.00 0.00 48 1017.6
20260508161713 62 124 3.5 7.0 0.00 0.00 0.00 48 1017.6
20260508161612 62 125 3.5 7.0 0.00 0.00 0.00 46 1017.5
20260508161511 62 125 4.3 7.0 0.00 0.00 0.00 46 1017.6
20260508161412 62 142 3.5 7.0 0.00 0.00 0.00 50 1017.7
20260508161311 62 149 3.5 7.0 0.00 0.00 0.00 51 1017.7
20260508161213 62 78 3.5 7.0 0.00 0.00 0.00 51 1017.7
20260508161109 62 61 3.5 7.0 0.00 0.00 0.00 49 1017.7
20260508161010 62 95 3.5 7.0 0.00 0.00 0.00 48 1017.7
20260508160909 62 108 3.5 7.0 0.00 0.00 0.00 48 1017.7
20260508160810 62 97 2.6 7.0 0.00 0.00 0.00 51 1017.7
20260508160711 62 122 2.6 6.1 0.00 0.00 0.00 49 1017.8
20260508160609 62 132 1.7 6.1 0.00 0.00 0.00 50 1017.8
20260508160509 62 47 1.7 4.3 0.00 0.00 0.00 49 1017.8
20260508160412 62 331 1.7 4.3 0.00 0.00 0.00 46 1017.7
20260508160310 62 324 1.7 4.3 0.00 0.00 0.00 46 1017.8
20260508160206 62 324 2.6 4.3 0.00 0.00 0.00 47 1017.8
20260508160103 62 325 2.6 4.3 0.00 0.00 0.00 50 1017.8
20260508160004 62 355 2.6 5.2 0.00 0.00 0.00 48 1017.9
20260508155904 62 46 2.6 5.2 0.00 0.00 0.00 50 1017.9
20260508155804 62 71 2.6 5.2 0.00 0.00 0.00 48 1017.9
20260508155659 62 270 2.6 5.2 0.00 0.00 0.00 47 1017.8
20260508155600 62 310 2.6 5.2 0.00 0.00 0.00 48 1017.9
20260508155459 62 54 2.6 5.2 0.00 0.00 0.00 47 1017.8
20260508155400 62 53 1.7 5.2 0.00 0.00 0.00 50 1017.9
20260508155300 62 40 1.7 5.2 0.00 0.00 0.00 50 1017.8
20260508155200 62 44 1.7 5.2 0.00 0.00 0.00 50 1017.9
20260508155059 62 48 1.7 5.2 0.00 0.00 0.00 50 1017.9
20260508155001 61 88 1.7 4.3 0.00 0.00 0.00 50 1017.9
20260508154859 61 89 1.7 4.3 0.00 0.00 0.00 48 1017.8
20260508154800 61 61 1.7 4.3 0.00 0.00 0.00 49 1018.0
20260508154659 61 56 1.7 4.3 0.00 0.00 0.00 47 1017.9
20260508154559 61 5 1.7 4.3 0.00 0.00 0.00 47 1017.8
20260508154459 61 340 1.7 4.3 0.00 0.00 0.00 47 1017.8
20260508154400 61 340 1.7 7.0 0.00 0.00 0.00 47 1017.9
20260508154300 61 342 2.6 7.0 0.00 0.00 0.00 47 1017.9
20260508154200 61 344 2.6 7.0 0.00 0.00 0.00 48 1018.0
20260508154101 61 311 2.6 7.0 0.00 0.00 0.00 49 1018.0
20260508153959 61 46 2.6 7.0 0.00 0.00 0.00 49 1017.9
20260508153901 61 46 2.6 7.0 0.00 0.00 0.00 51 1017.9
20260508153800 61 78 2.6 7.0 0.00 0.00 0.00 49 1018.0
20260508153700 61 60 2.6 7.0 0.00 0.00 0.00 50 1018.0
20260508153559 61 265 2.6 7.0 0.00 0.00 0.00 47 1018.0
20260508153459 61 289 3.5 7.0 0.00 0.00 0.00 48 1018.0
20260508153400 61 5 2.6 7.0 0.00 0.00 0.00 48 1018.0
20260508153300 61 342 2.6 7.0 0.00 0.00 0.00 47 1017.9
20260508153200 61 309 2.6 7.0 0.00 0.00 0.00 48 1018.0
20260508153056 61 294 3.5 7.0 0.00 0.00 0.00 49 1018.0
20260508152955 61 355 3.5 7.0 0.00 0.00 0.00 50 1017.9
20260508152855 61 13 3.5 7.0 0.00 0.00 0.00 48 1017.9
20260508152756 61 311 3.5 7.0 0.00 0.00 0.00 48 1018.0
20260508152655 61 344 3.5 7.0 0.00 0.00 0.00 46 1018.0
20260508152556 61 327 3.5 7.0 0.00 0.00 0.00 47 1018.0
20260508152457 61 0 2.6 7.0 0.00 0.00 0.00 47 1018.0
20260508152355 62 331 2.6 7.0 0.00 0.00 0.00 49 1018.0
20260508152255 62 325 2.6 7.0 0.00 0.00 0.00 48 1018.1
20260508152155 62 343 2.6 7.0 0.00 0.00 0.00 49 1018.1
20260508152056 62 52 2.6 7.0 0.00 0.00 0.00 46 1018.1
20260508151955 62 74 1.7 7.0 0.00 0.00 0.00 46 1018.1
20260508151856 62 74 1.7 7.0 0.00 0.00 0.00 45 1018.1
20260508151756 62 75 1.7 4.3 0.00 0.00 0.00 50 1018.1
20260508151655 62 330 1.7 4.3 0.00 0.00 0.00 48 1018.2
20260508151556 62 76 1.7 5.2 0.00 0.00 0.00 49 1018.1
20260508151457 62 45 1.7 5.2 0.00 0.00 0.00 49 1018.1
20260508151355 62 38 1.7 5.2 0.00 0.00 0.00 48 1018.1
20260508151255 62 9 1.7 5.2 0.00 0.00 0.00 49 1018.2
20260508151156 62 5 1.7 5.2 0.00 0.00 0.00 47 1018.1
20260508151056 61 9 2.6 5.2 0.00 0.00 0.00 46 1018.1
20260508150956 61 13 2.6 5.2 0.00 0.00 0.00 47 1018.1
20260508150855 62 23 1.7 5.2 0.00 0.00 0.00 48 1018.1
20260508150755 62 32 1.7 5.2 0.00 0.00 0.00 46 1018.1
20260508150655 62 34 1.7 5.2 0.00 0.00 0.00 51 1018.1
20260508150557 61 355 1.7 4.3 0.00 0.00 0.00 52 1018.1
20260508150455 61 355 1.7 4.3 0.00 0.00 0.00 49 1018.1
20260508150356 61 355 1.7 4.3 0.00 0.00 0.00 47 1018.1
20260508150256 61 38 1.7 4.3 0.00 0.00 0.00 48 1018.1
20260508150156 61 24 1.7 4.3 0.00 0.00 0.00 49 1018.2
20260508150056 61 28 1.7 4.3 0.00 0.00 0.00 48 1018.2
20260508145957 61 5 1.7 3.5 0.00 0.00 0.00 48 1018.1
20260508145856 61 328 0.9 3.5 0.00 0.00 0.00 49 1018.1
20260508145752 61 292 0.9 3.5 0.00 0.00 0.00 50 1018.2
20260508145652 61 286 0.9 3.5 0.00 0.00 0.00 51 1018.2
20260508145551 61 286 0.9 3.5 0.00 0.00 0.00 49 1018.1
20260508145452 61 286 0.9 3.5 0.00 0.00 0.00 49 1018.1
20260508145352 60 54 0.9 3.5 0.00 0.00 0.00 48 1018.2
20260508145253 60 55 0.9 3.5 0.00 0.00 0.00 48 1018.2
20260508145153 60 76 0.9 3.5 0.00 0.00 0.00 49 1018.1
20260508145052 60 127 0.9 3.5 0.00 0.00 0.00 50 1018.1
20260508144951 60 336 0.9 3.5 0.00 0.00 0.00 50 1018.2
20260508144853 59 336 0.9 3.5 0.00 0.00 0.00 50 1018.2
20260508144752 59 332 1.7 3.5 0.00 0.00 0.00 46 1018.2
20260508144652 59 212 1.7 3.5 0.00 0.00 0.00 48 1018.2
20260508144551 59 213 1.7 5.2 0.00 0.00 0.00 49 1018.2
20260508144451 59 213 1.7 7.8 0.00 0.00 0.00 49 1018.2
20260508144352 58 296 1.7 7.8 0.00 0.00 0.00 50 1018.1
20260508144253 58 223 1.7 7.8 0.00 0.00 0.00 50 1018.2
20260508144151 58 221 2.6 7.8 0.00 0.00 0.00 54 1018.1
20260508144053 58 12 2.6 7.8 0.00 0.00 0.00 55 1018.2
20260508143953 58 332 2.6 7.8 0.00 0.00 0.00 52 1018.1
20260508143852 58 332 2.6 7.8 0.00 0.00 0.00 53 1018.3
20260508143753 58 334 2.6 7.8 0.00 0.00 0.00 51 1018.2
20260508143651 58 281 2.6 7.8 0.00 0.00 0.00 50 1018.1
20260508143551 58 273 2.6 7.8 0.00 0.00 0.00 52 1018.1
20260508143452 58 334 2.6 7.0 0.00 0.00 0.00 50 1018.2
20260508143352 58 336 2.6 7.0 0.00 0.00 0.00 50 1018.1
20260508143253 58 330 2.6 7.0 0.00 0.00 0.00 50 1018.2
20260508143151 58 315 2.6 7.0 0.00 0.00 0.00 50 1018.1
20260508143051 58 304 2.6 7.0 0.00 0.00 0.00 50 1018.2
20260508142951 58 313 1.7 7.0 0.00 0.00 0.00 52 1018.2
20260508142851 58 318 1.7 4.3 0.00 0.00 0.00 53 1018.1
20260508142751 58 5 1.7 4.3 0.00 0.00 0.00 52 1018.2
20260508142652 58 328 1.7 4.3 0.00 0.00 0.00 50 1018.2
20260508142552 58 331 1.7 4.3 0.00 0.00 0.00 49 1018.1
20260508142448 58 306 1.7 4.3 0.00 0.00 0.00 48 1018.1
20260508142347 58 297 1.7 3.5 0.00 0.00 0.00 49 1018.2
20260508142249 57 297 1.7 3.5 0.00 0.00 0.00 48 1018.1
20260508142147 57 297 1.7 3.5 0.00 0.00 0.00 48 1018.1
20260508142049 57 290 1.7 5.2 0.00 0.00 0.00 50 1018.1
20260508141948 57 309 2.6 5.2 0.00 0.00 0.00 52 1018.1
20260508141847 57 310 2.6 5.2 0.00 0.00 0.00 51 1018.2
20260508141748 57 317 2.6 5.2 0.00 0.00 0.00 51 1018.1
20260508141648 57 312 2.6 6.1 0.00 0.00 0.00 49 1018.1
20260508141548 57 291 2.6 6.1 0.00 0.00 0.00 51 1018.1
20260508141447 57 300 2.6 6.1 0.00 0.00 0.00 53 1018.1
20260508141347 57 336 2.6 6.1 0.00 0.00 0.00 52 1018.1
20260508141248 57 336 2.6 6.1 0.00 0.00 0.00 51 1018.1
20260508141147 57 282 2.6 6.1 0.00 0.00 0.00 52 1018.1
20260508141049 57 351 2.6 6.1 0.00 0.00 0.00 51 1018.1
20260508140949 57 340 2.6 6.1 0.00 0.00 0.00 50 1018.2
20260508140848 57 330 2.6 6.1 0.00 0.00 0.00 53 1018.1
20260508140747 56 309 1.7 6.1 0.00 0.00 0.00 52 1018.1
20260508140647 56 327 1.7 5.2 0.00 0.00 0.00 52 1018.1
20260508140549 56 337 1.7 5.2 0.00 0.00 0.00 53 1018.2
20260508140448 56 153 1.7 4.3 0.00 0.00 0.00 53 1018.2
20260508140348 56 275 1.7 4.3 0.00 0.00 0.00 54 1018.1
20260508140249 56 273 1.7 4.3 0.00 0.00 0.00 52 1018.1
20260508140147 56 273 1.7 4.3 0.00 0.00 0.00 51 1018.2
20260508140048 56 309 1.7 4.3 0.00 0.00 0.00 52 1018.1
20260508135948 56 305 1.7 4.3 0.00 0.00 0.00 52 1018.2
20260508135840 56 229 1.7 4.3 0.00 0.00 0.00 52 1018.1
20260508135740 56 299 1.7 4.3 0.00 0.00 0.00 53 1018.1
20260508135540 56 298 1.7 3.5 0.00 0.00 0.00 52 1018.0
20260508135439 56 297 1.7 3.5 0.00 0.00 0.00 54 1018.1
20260508135341 56 294 1.7 3.5 0.00 0.00 0.00 54 1018.1
20260508135239 56 291 1.7 3.5 0.00 0.00 0.00 53 1018.1
20260508135140 56 291 1.7 3.5 0.00 0.00 0.00 52 1018.0
20260508135039 55 311 1.7 3.5 0.00 0.00 0.00 53 1018.0
20260508134940 55 312 1.7 3.5 0.00 0.00 0.00 54 1018.0
20260508134841 55 312 1.7 4.3 0.00 0.00 0.00 55 1017.9
20260508134739 55 312 1.7 4.3 0.00 0.00 0.00 55 1018.1
20260508134641 55 313 2.6 4.3 0.00 0.00 0.00 55 1017.9
20260508134541 55 313 2.6 5.2 0.00 0.00 0.00 53 1018.0
20260508134440 55 312 2.6 5.2 0.00 0.00 0.00 52 1018.0
20260508134340 55 312 2.6 5.2 0.00 0.00 0.00 54 1017.9
20260508134241 55 313 2.6 5.2 0.00 0.00 0.00 53 1017.9
20260508134139 55 313 2.6 5.2 0.00 0.00 0.00 55 1018.0
20260508134039 55 295 2.6 5.2 0.00 0.00 0.00 55 1017.9
20260508133940 55 274 2.6 5.2 0.00 0.00 0.00 56 1017.9
20260508133840 55 289 2.6 5.2 0.00 0.00 0.00 57 1017.9
20260508133741 55 319 2.6 5.2 0.00 0.00 0.00 54 1017.8
20260508133639 55 306 2.6 5.2 0.00 0.00 0.00 55 1017.8
20260508133539 55 317 2.6 4.3 0.00 0.00 0.00 55 1017.8
20260508133439 55 296 2.6 4.3 0.00 0.00 0.00 56 1017.8
20260508133340 55 287 2.6 4.3 0.00 0.00 0.00 55 1017.8
20260508133235 55 317 2.6 4.3 0.00 0.00 0.00 55 1017.7
20260508133136 55 307 2.6 4.3 0.00 0.00 0.00 55 1017.9
20260508133035 55 316 2.6 5.2 0.00 0.00 0.00 57 1017.8
20260508132935 55 279 2.6 5.2 0.00 0.00 0.00 57 1017.8
20260508132831 55 321 2.6 5.2 0.00 0.00 0.00 58 1017.8
20260508132724 55 328 2.6 5.2 0.00 0.00 0.00 57 1017.8
20260508132625 55 308 2.6 5.2 0.00 0.00 0.00 59 1017.8
20260508132528 55 310 2.6 5.2 0.00 0.00 0.00 56 1017.8
20260508132425 55 333 2.6 5.2 0.00 0.00 0.00 57 1017.7
20260508132322 55 337 2.6 5.2 0.00 0.00 0.00 58 1017.8
20260508132217 54 337 2.6 5.2 0.00 0.00 0.00 58 1017.8
20260508132117 54 317 2.6 5.2 0.00 0.00 0.00 57 1017.8
20260508132019 54 315 2.6 5.2 0.00 0.00 0.00 57 1017.8
20260508131918 54 312 2.6 5.2 0.00 0.00 0.00 58 1017.8
20260508131815 54 337 2.6 4.3 0.00 0.00 0.00 58 1017.8
20260508131713 54 348 2.6 4.3 0.00 0.00 0.00 58 1017.8
20260508131612 54 309 2.6 4.3 0.00 0.00 0.00 57 1017.8
20260508131512 54 290 2.6 4.3 0.00 0.00 0.00 58 1017.9
20260508131411 54 295 2.6 4.3 0.00 0.00 0.00 58 1017.8
20260508131309 54 327 1.7 4.3 0.00 0.00 0.00 58 1017.7
20260508131202 54 338 1.7 4.3 0.00 0.00 0.00 58 1017.7
20260508131102 54 340 1.7 4.3 0.00 0.00 0.00 58 1017.8
20260508131002 54 340 1.7 4.3 0.00 0.00 0.00 57 1017.7
20260508130902 54 355 2.6 4.3 0.00 0.00 0.00 58 1017.7
20260508130800 54 313 2.6 4.3 0.00 0.00 0.00 58 1017.7
20260508130655 54 313 2.6 4.3 0.00 0.00 0.00 58 1017.7
20260508130556 54 325 2.6 4.3 0.00 0.00 0.00 59 1017.7
20260508130456 54 319 2.6 4.3 0.00 0.00 0.00 58 1017.7
20260508130355 54 338 2.6 4.3 0.00 0.00 0.00 58 1017.8
20260508130254 54 309 2.6 4.3 0.00 0.00 0.00 59 1017.7
20260508130150 54 319 2.6 4.3 0.00 0.00 0.00 59 1017.8
20260508130050 54 317 2.6 4.3 0.00 0.00 0.00 58 1017.8
20260508125949 54 323 2.6 4.3 0.00 0.00 0.00 59 1017.8
20260508125851 54 355 2.6 4.3 0.00 0.00 0.00 58 1017.8
20260508125748 54 350 2.6 4.3 0.00 0.00 0.00 57 1017.8
20260508125639 54 336 2.6 4.3 0.00 0.00 0.00 58 1017.7
20260508125539 54 300 1.7 4.3 0.00 0.00 0.00 58 1017.8
20260508125437 54 300 1.7 4.3 0.00 0.00 0.00 59 1017.8
20260508125338 54 304 1.7 4.3 0.00 0.00 0.00 57 1017.8
20260508125236 54 304 2.6 4.3 0.00 0.00 0.00 58 1017.8
20260508125135 54 303 1.7 4.3 0.00 0.00 0.00 58 1017.8
20260508125033 54 306 1.7 4.3 0.00 0.00 0.00 59 1017.8
20260508124932 54 343 1.7 4.3 0.00 0.00 0.00 59 1017.8
20260508124832 54 342 1.7 4.3 0.00 0.00 0.00 62 1017.8
20260508124729 53 271 1.7 4.3 0.00 0.00 0.00 61 1017.8
20260508124627 53 344 1.7 4.3 0.00 0.00 0.00 62 1017.7
20260508124525 53 347 1.7 4.3 0.00 0.00 0.00 63 1017.8
20260508124425 53 351 1.7 4.3 0.00 0.00 0.00 60 1017.8
20260508124326 53 347 2.6 4.3 0.00 0.00 0.00 60 1017.7
20260508124224 53 5 1.7 3.5 0.00 0.00 0.00 61 1017.7
20260508124120 53 328 1.7 3.5 0.00 0.00 0.00 61 1017.7
20260508124019 53 328 2.6 3.5 0.00 0.00 0.00 62 1017.6
20260508123916 53 349 2.6 3.5 0.00 0.00 0.00 63 1017.6
20260508123815 53 349 2.6 3.5 0.00 0.00 0.00 63 1017.7
20260508123714 53 350 2.6 3.5 0.00 0.01 0.00 64 1017.7
20260508123611 53 333 2.6 3.5 0.00 0.01 0.00 64 1017.7
20260508123512 53 336 2.6 3.5 0.00 0.01 0.00 65 1017.7
20260508123409 53 323 2.6 3.5 0.00 0.01 0.00 64 1017.6
20260508123310 53 350 2.6 3.5 0.00 0.01 0.00 64 1017.7
20260508123208 53 342 2.6 3.5 0.00 0.01 0.00 64 1017.7
20260508123101 52 341 2.6 3.5 0.00 0.01 0.00 63 1017.6
20260508123001 52 280 2.6 3.5 0.00 0.01 0.00 63 1017.6
20260508122905 52 329 2.6 3.5 0.00 0.01 0.00 64 1017.6
20260508122802 52 344 2.6 3.5 0.00 0.01 0.00 66 1017.7
20260508122702 52 54 2.6 3.5 0.00 0.01 0.00 66 1017.5
20260508122553 52 54 2.6 4.3 0.00 0.01 0.00 66 1017.5
20260508122451 52 82 2.6 4.3 0.00 0.01 0.00 66 1017.6
20260508122352 52 344 2.6 4.3 0.00 0.01 0.00 65 1017.5
20260508122251 52 345 2.6 6.1 0.00 0.01 0.00 64 1017.6
20260508122152 52 344 2.6 6.1 0.00 0.01 0.00 64 1017.6
20260508122049 52 345 2.6 6.1 0.00 0.01 0.00 63 1017.5
20260508121950 52 344 2.6 6.1 0.00 0.01 0.00 65 1017.6
20260508121848 51 344 2.6 6.1 0.00 0.02 0.00 63 1017.5
20260508121748 51 344 2.6 6.1 0.00 0.02 0.00 63 1017.5
20260508121645 51 313 2.6 6.1 0.00 0.02 0.00 63 1017.4
20260508121541 51 295 2.6 6.1 0.00 0.02 0.00 63 1017.4
20260508121443 51 306 2.6 6.1 0.00 0.02 0.00 62 1017.4
20260508121341 51 304 2.6 6.1 0.00 0.02 0.00 63 1017.4
20260508121242 51 286 2.6 4.3 0.00 0.02 0.00 63 1017.4
20260508121139 51 301 2.6 3.5 0.00 0.02 0.00 64 1017.5
20260508121030 51 302 1.7 3.5 0.00 0.03 0.00 64 1017.4
20260508120930 51 302 1.7 3.5 0.00 0.03 0.00 64 1017.4
20260508120831 51 302 1.7 3.5 0.00 0.03 0.00 63 1017.4
20260508120729 51 315 1.7 3.5 0.00 0.03 0.00 63 1017.4
20260508120630 51 306 1.7 3.5 0.00 0.03 0.00 66 1017.4
20260508120523 51 305 1.7 3.5 0.00 0.03 0.00 65 1017.4
20260508120424 51 291 1.7 3.5 0.00 0.03 0.00 65 1017.3
20260508120324 51 291 1.7 3.5 0.00 0.03 0.00 64 1017.3
20260508120224 51 292 1.7 3.5 0.00 0.03 0.00 66 1017.3
20260508120124 51 296 1.7 3.5 0.00 0.03 0.00 66 1017.3
20260508120020 51 295 1.7 3.5 0.00 0.03 0.00 65 1017.2
20260508115918 51 296 1.7 3.5 0.00 0.04 0.00 66 1017.3
20260508115818 51 304 1.7 3.5 0.00 0.04 0.00 66 1017.3
20260508115717 51 305 1.7 3.5 0.00 0.04 0.00 66 1017.3
20260508115617 51 288 1.7 3.5 0.00 0.04 0.00 67 1017.2
20260508115511 51 336 1.7 3.5 0.00 0.04 0.00 66 1017.2
20260508115409 51 338 1.7 3.5 0.00 0.04 0.00 65 1017.3
20260508115309 51 340 1.7 3.5 0.00 0.04 0.00 65 1017.2
20260508115210 51 340 1.7 2.6 0.00 0.04 0.00 65 1017.3
20260508115107 51 314 1.7 2.6 0.00 0.04 0.00 65 1017.1
20260508115002 51 313 1.7 2.6 0.00 0.04 0.00 65 1017.2
20260508114901 51 313 0.9 2.6 0.00 0.04 0.00 65 1017.1
20260508114802 51 314 0.9 2.6 0.00 0.04 0.00 66 1017.1
20260508114702 51 313 0.9 2.6 0.00 0.04 0.00 67 1017.1
20260508114602 51 313 0.9 2.6 0.00 0.04 0.00 68 1017.1
20260508114459 51 312 0.9 2.6 0.00 0.04 0.00 68 1017.0
20260508114400 51 298 0.9 2.6 0.00 0.04 0.00 67 1017.0
20260508114259 51 289 0.9 2.6 0.00 0.04 0.00 69 1016.9
20260508114158 51 202 0.9 3.5 0.00 0.04 0.00 72 1017.0
20260508114056 51 202 0.9 3.5 0.00 0.04 0.00 72 1017.0
20260508113948 51 187 0.9 3.5 0.00 0.04 0.00 70 1017.0
20260508113846 51 180 0.9 3.5 0.00 0.04 0.00 69 1016.9
20260508113745 51 180 1.7 3.5 0.00 0.04 0.00 67 1016.9
20260508113646 51 181 1.7 3.5 0.00 0.04 0.00 68 1017.0
20260508113546 51 181 1.7 3.5 0.00 0.04 0.00 67 1016.9
20260508113445 51 181 1.7 3.5 0.00 0.04 0.00 68 1016.9
20260508113344 50 263 1.7 3.5 0.00 0.04 0.00 67 1016.9
20260508113243 50 263 0.9 3.5 0.00 0.04 0.00 67 1016.7
20260508113141 50 257 0.9 2.6 0.00 0.04 0.00 67 1016.9
20260508113039 50 255 0.9 2.6 0.00 0.04 0.00 67 1016.9
20260508112938 50 255 0.9 2.6 0.00 0.04 0.00 68 1016.7
20260508112838 50 255 0.9 2.6 0.00 0.05 0.00 68 1016.7
20260508112735 50 254 0.0 2.6 0.00 0.05 0.00 68 1016.7
20260508112636 50 251 0.0 2.6 0.00 0.05 0.00 69 1016.6
20260508112534 50 240 0.0 0.0 0.00 0.05 0.00 69 1016.6
20260508112425 50 240 0.0 0.0 0.00 0.05 0.00 69 1016.7
20260508112325 50 240 0.0 0.0 0.00 0.05 0.00 69 1016.6
20260508112227 50 240 0.0 0.0 0.00 0.05 0.00 68 1016.6
20260508112126 49 240 0.0 0.0 0.00 0.05 0.00 68 1016.6
20260508112023 49 240 0.0 0.0 0.00 0.05 0.00 69 1016.6
20260508111924 49 240 0.0 0.0 0.00 0.05 0.00 70 1016.5
20260508111822 49 240 0.0 0.0 0.00 0.05 0.00 71 1016.5
20260508111722 49 240 0.0 0.0 0.00 0.05 0.00 71 1016.6
20260508111619 49 240 0.0 0.0 0.00 0.05 0.00 72 1016.6
20260508111518 49 240 0.0 0.0 0.00 0.05 0.00 72 1016.5
20260508111413 49 240 0.0 0.0 0.00 0.06 0.00 72 1016.6
20260508111312 49 240 0.0 0.0 0.00 0.06 0.00 71 1016.6
20260508111209 49 240 0.0 0.0 0.00 0.06 0.00 71 1016.5
20260508111110 48 240 0.0 0.0 0.00 0.06 0.00 71 1016.5
20260508111007 48 240 0.0 0.0 0.00 0.06 0.00 72 1016.4
20260508110901 48 240 0.0 0.0 0.00 0.06 0.00 71 1016.4
20260508110802 48 240 0.0 0.0 0.00 0.06 0.00 71 1016.4
20260508110701 48 240 0.0 0.0 0.00 0.06 0.00 71 1016.4
20260508110600 48 240 0.0 0.0 0.00 0.06 0.00 70 1016.4
20260508110457 48 240 0.0 0.0 0.00 0.06 0.00 71 1016.4
20260508110359 48 240 0.0 0.0 0.00 0.06 0.00 70 1016.4
20260508110255 48 240 0.0 0.0 0.00 0.06 0.00 71 1016.4
20260508110154 48 240 0.0 0.9 0.00 0.06 0.00 71 1016.4
20260508110053 48 240 0.0 0.9 0.00 0.07 0.00 71 1016.3
20260508105951 47 240 0.0 0.9 0.00 0.07 0.00 70 1016.3
20260508105852 47 240 0.0 0.9 0.00 0.07 0.00 70 1016.3
20260508105750 47 240 0.0 1.7 0.00 0.07 0.00 71 1016.2
20260508105647 47 240 0.0 1.7 0.00 0.07 0.00 71 1016.2
20260508105548 47 240 0.9 1.7 0.00 0.07 0.00 70 1016.3
20260508105446 47 240 0.9 3.5 0.00 0.07 0.00 71 1016.2
20260508105343 47 239 0.9 3.5 0.00 0.07 0.00 70 1016.2
20260508105240 47 239 0.9 3.5 0.00 0.07 0.00 70 1016.2
20260508105138 47 239 0.9 3.5 0.00 0.07 0.00 71 1016.2
20260508105037 47 239 0.9 3.5 0.00 0.07 0.00 71 1016.2
20260508104836 47 240 0.9 3.5 0.00 0.07 0.00 71 1016.1
20260508104734 47 269 0.9 3.5 0.00 0.07 0.00 71 1016.1
20260508104631 47 269 0.9 3.5 0.00 0.07 0.00 71 1016.2
20260508104532 47 269 0.9 3.5 0.00 0.07 0.00 71 1016.1
20260508104430 47 265 0.9 2.6 0.00 0.07 0.00 71 1016.1
20260508104324 47 265 0.9 2.6 0.00 0.07 0.00 71 1016.0
20260508104223 47 265 0.9 2.6 0.00 0.07 0.00 71 1016.0
20260508104125 47 300 0.9 2.6 0.00 0.07 0.00 71 1016.0
20260508104023 47 300 0.9 2.6 0.00 0.07 0.00 71 1016.0
20260508103924 46 300 0.9 2.6 0.00 0.07 0.00 71 1016.0
20260508103815 46 300 0.9 2.6 0.00 0.07 0.00 71 1016.0
20260508103716 46 300 0.9 2.6 0.00 0.07 0.00 71 1016.0
20260508103616 46 300 0.9 2.6 0.00 0.07 0.00 71 1016.0
20260508103516 46 300 0.9 2.6 0.00 0.07 0.00 71 1016.0
20260508103414 46 297 0.0 2.6 0.00 0.07 0.00 71 1016.0
20260508103311 46 298 0.0 1.7 0.00 0.07 0.00 71 1016.0
20260508103212 46 295 0.0 0.9 0.00 0.07 0.00 71 1015.9
20260508103111 46 295 0.0 0.9 0.00 0.07 0.00 71 1015.9
20260508103011 46 295 0.0 1.7 0.00 0.07 0.00 71 1016.0
20260508102907 46 295 0.9 1.7 0.00 0.07 0.00 71 1015.8
20260508102802 47 295 0.9 1.7 0.00 0.07 0.00 71 1015.8
20260508102701 47 295 0.9 1.7 0.00 0.07 0.00 72 1015.9
20260508102602 47 295 0.9 1.7 0.00 0.07 0.00 72 1015.9
20260508102500 47 295 0.9 1.7 0.00 0.07 0.00 72 1015.8
20260508102402 47 295 0.9 2.6 0.00 0.07 0.00 72 1015.9
20260508102251 47 295 0.9 2.6 0.00 0.07 0.00 72 1015.9
20260508102152 47 295 0.9 2.6 0.00 0.07 0.00 72 1015.9
20260508102051 47 295 0.9 2.6 0.00 0.07 0.00 72 1015.8
20260508101952 47 295 0.9 2.6 0.00 0.07 0.00 73 1015.8
20260508101851 47 297 0.9 2.6 0.00 0.07 0.00 73 1015.8
20260508101751 47 298 0.9 2.6 0.00 0.07 0.00 71 1015.8
20260508101650 47 298 0.9 2.6 0.00 0.07 0.00 70 1015.8
20260508101549 47 296 0.9 4.3 0.00 0.07 0.00 70 1015.7
20260508101448 47 296 0.9 4.3 0.00 0.07 0.00 70 1015.7
20260508101346 47 296 0.9 4.3 0.00 0.07 0.00 71 1015.7
20260508101246 47 296 1.7 4.3 0.00 0.07 0.00 70 1015.6
20260508101145 47 296 1.7 4.3 0.00 0.07 0.00 70 1015.7
20260508101042 47 296 1.7 4.3 0.00 0.07 0.00 70 1015.5
20260508100942 47 296 1.7 4.3 0.00 0.07 0.00 70 1015.6
20260508100839 47 296 1.7 4.3 0.00 0.07 0.00 70 1015.6
20260508100733 47 308 1.7 4.3 0.00 0.07 0.00 70 1015.6
20260508100633 47 311 1.7 4.3 0.00 0.07 0.00 71 1015.6
20260508100534 47 286 1.7 3.5 0.00 0.07 0.00 71 1015.5
20260508100431 47 286 1.7 3.5 0.00 0.07 0.00 70 1015.6
20260508100330 47 286 1.7 3.5 0.00 0.07 0.00 71 1015.6
20260508100226 47 284 1.7 3.5 0.00 0.07 0.00 70 1015.5
20260508100122 47 287 2.6 4.3 0.00 0.07 0.00 71 1015.6
20260508100025 48 287 2.6 4.3 0.00 0.07 0.00 70 1015.6
20260508095924 47 289 1.7 4.3 0.00 0.07 0.00 71 1015.6
20260508095824 48 281 1.7 4.3 0.00 0.07 0.00 70 1015.6
20260508095720 48 265 1.7 4.3 0.00 0.07 0.00 71 1015.6
20260508095618 48 295 1.7 4.3 0.00 0.07 0.00 71 1015.6
20260508095519 48 291 2.6 4.3 0.00 0.07 0.00 71 1015.5
20260508095420 48 288 1.7 4.3 0.00 0.07 0.00 71 1015.6
20260508095318 48 284 1.7 4.3 0.00 0.07 0.00 71 1015.6
20260508095211 48 297 1.7 4.3 0.00 0.07 0.00 71 1015.5
20260508095111 48 288 1.7 4.3 0.00 0.07 0.00 71 1015.5
20260508095011 48 290 1.7 4.3 0.00 0.07 0.00 71 1015.5
20260508094910 48 291 1.7 4.3 0.00 0.07 0.00 71 1015.5
20260508094808 48 291 1.7 4.3 0.00 0.07 0.00 71 1015.6
20260508094705 48 291 1.7 4.3 0.00 0.07 0.00 71 1015.6
20260508094605 48 272 1.7 3.5 0.00 0.07 0.00 71 1015.5
20260508094505 48 273 1.7 3.5 0.00 0.07 0.00 71 1015.5
20260508094404 48 273 1.7 3.5 0.00 0.07 0.00 71 1015.5
20260508094301 48 287 1.7 3.5 0.00 0.07 0.00 71 1015.5
20260508094158 48 287 1.7 3.5 0.00 0.07 0.00 70 1015.5
20260508094057 48 293 1.7 3.5 0.00 0.07 0.00 70 1015.5
20260508093956 48 273 1.7 3.5 0.00 0.07 0.00 70 1015.6
20260508093858 48 306 1.7 3.5 0.00 0.07 0.00 70 1015.4
20260508093755 48 306 1.7 3.5 0.00 0.07 0.00 70 1015.5
20260508093647 48 306 1.7 5.2 0.00 0.07 0.00 69 1015.5
20260508093544 48 306 1.7 5.2 0.00 0.07 0.00 69 1015.4
20260508093446 48 306 1.7 5.2 0.00 0.07 0.00 69 1015.5
20260508093346 48 307 1.7 5.2 0.00 0.07 0.00 69 1015.5
20260508093245 48 307 1.7 5.2 0.00 0.07 0.00 69 1015.5
20260508093146 48 307 2.6 5.2 0.00 0.07 0.00 69 1015.5
20260508093043 48 307 1.7 5.2 0.00 0.07 0.00 69 1015.4
20260508092944 48 309 1.7 5.2 0.00 0.07 0.00 69 1015.5
20260508092842 48 309 2.6 5.2 0.00 0.07 0.00 69 1015.4
20260508092740 48 310 2.6 5.2 0.00 0.07 0.00 69 1015.4
20260508092638 48 311 2.6 6.1 0.00 0.07 0.00 69 1015.4
20260508092537 49 311 2.6 6.1 0.00 0.07 0.00 69 1015.3
20260508092437 49 311 2.6 6.1 0.00 0.07 0.00 69 1015.4
20260508092336 49 311 2.6 6.1 0.00 0.07 0.00 69 1015.3
20260508092234 49 313 2.6 7.0 0.00 0.07 0.00 69 1015.3
20260508092127 49 297 2.6 7.0 0.00 0.07 0.00 69 1015.3
20260508092027 49 308 2.6 7.0 0.00 0.07 0.00 70 1015.3
20260508091926 49 305 2.6 7.0 0.00 0.07 0.00 70 1015.3
20260508091825 49 317 2.6 7.0 0.00 0.07 0.00 69 1015.3
20260508091724 49 299 2.6 7.0 0.00 0.07 0.00 69 1015.3
20260508091618 49 303 2.6 7.0 0.00 0.07 0.00 70 1015.4
20260508091518 49 304 3.5 7.0 0.00 0.07 0.00 69 1015.3
20260508091417 49 303 3.5 7.0 0.00 0.07 0.00 70 1015.3
20260508091316 49 279 3.5 7.0 0.00 0.07 0.00 70 1015.3
20260508091218 49 309 3.5 7.0 0.00 0.07 0.00 71 1015.1
20260508091111 49 279 2.6 7.0 0.00 0.07 0.00 72 1015.1
20260508091011 49 276 2.6 7.0 0.00 0.07 0.00 71 1015.1
20260508090912 49 268 2.6 7.0 0.00 0.07 0.00 70 1015.0
20260508090812 49 287 2.6 7.0 0.00 0.07 0.00 71 1015.0
20260508090712 49 313 2.6 7.0 0.00 0.07 0.00 70 1015.1
20260508090602 49 330 2.6 7.0 0.00 0.07 0.00 70 1015.1
20260508090500 49 306 1.7 7.0 0.00 0.07 0.00 70 1015.1
20260508090402 49 313 1.7 7.0 0.00 0.07 0.00 71 1015.3
20260508090302 49 289 1.7 4.3 0.00 0.07 0.00 72 1015.1
20260508090202 49 310 1.7 4.3 0.00 0.07 0.00 72 1015.3
20260508090058 49 311 1.7 4.3 0.00 0.07 0.00 72 1015.1
20260508085956 49 336 1.7 4.3 0.00 0.07 0.00 72 1015.3
20260508085854 49 297 1.7 4.3 0.00 0.07 0.00 71 1015.1
20260508085756 49 300 1.7 4.3 0.00 0.07 0.00 71 1015.1
20260508085656 49 304 1.7 4.3 0.00 0.07 0.00 71 1015.1
20260508085551 49 298 1.7 4.3 0.00 0.07 0.00 71 1015.3
20260508085452 49 302 1.7 4.3 0.00 0.07 0.00 71 1015.3
20260508085351 49 305 1.7 4.3 0.00 0.07 0.00 71 1015.1
20260508085250 49 306 1.7 4.3 0.00 0.07 0.00 71 1015.3
20260508085150 49 309 1.7 5.2 0.00 0.07 0.00 71 1015.3
20260508085042 49 295 1.7 5.2 0.00 0.07 0.00 70 1015.3
20260508084944 49 295 1.7 5.2 0.00 0.07 0.00 70 1015.3
20260508084840 49 296 2.6 6.1 0.00 0.07 0.00 71 1015.1
20260508084742 49 300 2.6 6.1 0.00 0.07 0.00 71 1015.1
20260508084640 49 300 2.6 6.1 0.00 0.07 0.00 71 1015.1
20260508084536 49 300 2.6 6.1 0.00 0.07 0.00 70 1015.1
20260508084438 49 300 2.6 6.1 0.00 0.07 0.00 70 1015.1
20260508084335 49 297 2.6 6.1 0.00 0.07 0.00 70 1015.1
20260508084236 49 292 2.6 6.1 0.00 0.07 0.00 70 1015.0
20260508084134 49 282 2.6 6.1 0.00 0.07 0.00 70 1015.1
20260508084028 49 311 2.6 6.1 0.00 0.07 0.00 70 1015.0
20260508083927 49 286 2.6 6.1 0.00 0.07 0.00 70 1015.0
20260508083828 49 313 2.6 5.2 0.00 0.07 0.00 71 1015.1
20260508083727 49 290 2.6 7.0 0.00 0.07 0.00 71 1015.1
20260508083627 49 294 3.5 7.0 0.00 0.07 0.00 70 1015.1
20260508083520 49 294 3.5 7.0 0.00 0.07 0.00 70 1015.1
20260508083421 49 296 3.5 7.0 0.00 0.07 0.00 70 1015.1
20260508083320 49 292 3.5 7.0 0.00 0.07 0.00 70 1015.1
20260508083220 49 290 3.5 7.0 0.00 0.07 0.00 70 1015.1
20260508083117 49 292 3.5 7.0 0.00 0.07 0.00 70 1015.0
20260508083012 49 293 3.5 7.0 0.00 0.07 0.00 69 1015.1
20260508082913 49 304 3.5 7.0 0.00 0.07 0.00 69 1015.0
20260508082812 49 318 3.5 7.0 0.00 0.07 0.00 69 1015.0
20260508082711 49 317 3.5 6.1 0.00 0.07 0.00 69 1015.0
20260508082611 49 311 3.5 7.0 0.00 0.07 0.00 70 1014.9
20260508082504 49 297 3.5 7.0 0.00 0.07 0.00 70 1015.0
20260508082406 49 296 3.5 7.0 0.00 0.07 0.00 70 1015.0
20260508082306 49 289 3.5 7.0 0.00 0.07 0.00 70 1015.0
20260508082205 50 301 3.5 7.0 0.00 0.07 0.00 70 1014.9
20260508082105 49 304 3.5 7.0 0.00 0.07 0.00 70 1014.9
20260508082000 49 313 3.5 7.0 0.00 0.07 0.00 70 1014.9
20260508081902 49 288 3.5 7.0 0.00 0.07 0.00 70 1015.0
20260508081801 49 311 3.5 7.0 0.00 0.07 0.00 70 1015.0
20260508081702 49 304 3.5 7.0 0.00 0.07 0.00 70 1015.0
20260508081602 49 309 3.5 6.1 0.00 0.07 0.00 70 1015.0
20260508081501 49 293 3.5 6.1 0.00 0.07 0.00 70 1015.0
20260508081401 49 291 3.5 6.1 0.00 0.07 0.00 70 1015.0
20260508081302 49 298 3.5 6.1 0.00 0.07 0.00 70 1015.0
20260508081158 49 288 3.5 6.1 0.00 0.07 0.00 71 1015.0
20260508081059 49 291 3.5 6.1 0.00 0.07 0.00 71 1015.0
20260508080958 49 302 3.5 6.1 0.00 0.07 0.00 71 1014.9
20260508080857 49 310 3.5 7.0 0.00 0.07 0.00 71 1014.8
20260508080757 49 304 3.5 7.0 0.00 0.07 0.00 71 1014.9
20260508080658 49 300 3.5 7.0 0.00 0.07 0.00 71 1014.8
20260508080556 49 303 3.5 7.0 0.00 0.07 0.00 71 1014.8
20260508080458 49 299 3.5 7.0 0.00 0.07 0.00 71 1014.8
20260508080357 49 307 3.5 7.0 0.00 0.07 0.00 71 1014.8
20260508080251 49 306 3.5 7.0 0.00 0.07 0.00 72 1014.8
20260508080150 49 294 3.5 7.0 0.00 0.07 0.00 71 1014.8
20260508080052 49 327 3.5 7.0 0.00 0.07 0.00 72 1014.8
20260508075952 49 297 3.5 7.0 0.00 0.07 0.00 72 1014.8
20260508075851 49 306 3.5 6.1 0.00 0.07 0.00 72 1014.8
20260508075745 49 302 3.5 6.1 0.00 0.07 0.00 73 1014.9
20260508075645 49 301 3.5 6.1 0.00 0.07 0.00 73 1014.7
20260508075545 49 300 3.5 6.1 0.00 0.07 0.00 73 1014.7
20260508075444 49 306 3.5 6.1 0.00 0.07 0.00 73 1014.7
20260508075346 49 279 3.5 6.1 0.00 0.07 0.00 73 1014.7
20260508075242 49 298 3.5 6.1 0.00 0.07 0.00 73 1014.6
20260508075144 49 305 3.5 6.1 0.00 0.07 0.00 73 1014.6
20260508075041 49 308 3.5 6.1 0.00 0.07 0.00 73 1014.6
20260508074941 49 310 3.5 6.1 0.00 0.07 0.00 73 1014.6
20260508074842 49 292 3.5 6.1 0.00 0.07 0.00 74 1014.6
20260508074742 49 313 3.5 6.1 0.00 0.07 0.00 74 1014.6
20260508074641 49 312 3.5 6.1 0.00 0.07 0.00 74 1014.6
20260508074540 49 302 3.5 6.1 0.00 0.07 0.00 73 1014.6
20260508074438 49 304 3.5 6.1 0.00 0.07 0.00 74 1014.7
20260508074339 49 302 3.5 6.1 0.00 0.07 0.00 74 1014.7
20260508074238 49 301 3.5 6.1 0.00 0.07 0.00 74 1014.8
20260508074139 49 302 3.5 6.1 0.00 0.07 0.00 74 1014.7
20260508074039 49 306 3.5 6.1 0.00 0.07 0.00 74 1014.7
20260508073938 49 303 3.5 6.1 0.00 0.07 0.00 74 1014.8
20260508073836 49 301 3.5 6.1 0.00 0.07 0.00 74 1014.6
20260508073736 49 304 3.5 6.1 0.00 0.07 0.00 74 1014.6
20260508073633 49 290 3.5 6.1 0.00 0.07 0.00 74 1014.7
20260508073533 49 292 3.5 6.1 0.00 0.07 0.00 75 1014.7
20260508073433 49 298 3.5 6.1 0.00 0.07 0.00 75 1014.7
20260508073333 49 304 3.5 6.1 0.00 0.07 0.00 75 1014.7
20260508073233 49 300 3.5 7.0 0.00 0.07 0.00 75 1014.7
20260508073132 49 295 3.5 7.0 0.00 0.07 0.00 75 1014.6
20260508073034 49 291 3.5 7.0 0.00 0.07 0.00 76 1014.6
20260508072932 49 288 3.5 7.0 0.00 0.07 0.00 75 1014.6
20260508072829 49 301 3.5 7.0 0.00 0.07 0.00 76 1014.6
20260508072729 49 308 3.5 7.0 0.00 0.07 0.00 76 1014.6
20260508072630 49 293 3.5 7.0 0.00 0.07 0.00 76 1014.7
20260508072530 49 301 3.5 7.0 0.00 0.07 0.00 76 1014.6
20260508072428 49 306 3.5 7.0 0.00 0.07 0.00 76 1014.6
20260508072330 49 322 3.5 7.0 0.00 0.07 0.00 76 1014.6
20260508072228 49 304 3.5 6.1 0.00 0.07 0.00 76 1014.6
20260508072128 49 295 3.5 6.1 0.00 0.07 0.00 76 1014.6
20260508072030 49 295 3.5 6.1 0.00 0.07 0.00 76 1014.5
20260508071930 49 303 3.5 6.1 0.00 0.07 0.00 76 1014.6
20260508071825 49 295 3.5 6.1 0.00 0.07 0.00 76 1014.6
20260508071725 49 302 3.5 6.1 0.00 0.07 0.00 76 1014.6
20260508071624 49 312 3.5 6.1 0.00 0.07 0.00 76 1014.6
20260508071525 50 316 3.5 6.1 0.00 0.07 0.00 76 1014.6
20260508071425 50 324 3.5 6.1 0.00 0.07 0.00 77 1014.5
20260508071325 50 300 3.5 6.1 0.00 0.07 0.00 77 1014.6
20260508071225 50 331 3.5 6.1 0.00 0.07 0.00 77 1014.6
20260508071125 50 304 3.5 6.1 0.00 0.07 0.00 77 1014.6
20260508071025 50 321 3.5 6.1 0.00 0.07 0.00 77 1014.6
20260508070924 50 313 3.5 6.1 0.00 0.07 0.00 77 1014.6
20260508070825 50 304 3.5 6.1 0.00 0.07 0.00 77 1014.6
20260508070726 50 298 3.5 6.1 0.00 0.07 0.00 77 1014.6
20260508070626 50 314 3.5 6.1 0.00 0.07 0.00 77 1014.6
20260508070525 50 293 3.5 6.1 0.00 0.07 0.00 77 1014.6
20260508070425 50 312 3.5 6.1 0.00 0.07 0.00 78 1014.6
20260508070325 50 289 3.5 6.1 0.00 0.07 0.00 78 1014.5
20260508070226 50 312 3.5 5.2 0.00 0.07 0.00 78 1014.5
20260508070124 50 286 3.5 6.1 0.00 0.07 0.00 78 1014.5
20260508070022 50 306 3.5 6.1 0.00 0.07 0.00 78 1014.5
20260508065923 50 315 3.5 6.1 0.00 0.07 0.00 78 1014.5
20260508065820 50 307 3.5 6.1 0.00 0.07 0.00 78 1014.5
20260508065720 50 313 3.5 6.1 0.00 0.07 0.00 78 1014.5
20260508065621 50 307 3.5 6.1 0.00 0.07 0.00 78 1014.5
20260508065522 50 304 3.5 6.1 0.00 0.07 0.00 78 1014.5
20260508065422 50 333 3.5 6.1 0.00 0.07 0.00 78 1014.5
20260508065321 50 306 3.5 7.0 0.00 0.07 0.00 78 1014.5
20260508065221 50 298 3.5 7.0 0.00 0.07 0.00 78 1014.4
20260508065121 50 304 4.3 7.0 0.00 0.07 0.00 78 1014.5
20260508065021 50 302 4.3 7.0 0.00 0.07 0.00 78 1014.6
20260508064921 50 317 4.3 7.0 0.00 0.07 0.00 78 1014.5
20260508064821 50 328 4.3 7.0 0.00 0.07 0.00 78 1014.4
20260508064722 50 325 4.3 7.0 0.00 0.07 0.00 78 1014.5
20260508064622 50 315 4.3 7.0 0.00 0.07 0.00 78 1014.5
20260508064521 50 332 4.3 7.0 0.00 0.07 0.00 78 1014.5
20260508064420 50 336 4.3 7.0 0.00 0.07 0.00 78 1014.4
20260508064319 50 312 4.3 7.0 0.00 0.07 0.00 78 1014.5
20260508064220 50 302 4.3 7.0 0.00 0.07 0.00 78 1014.4
20260508064119 50 327 4.3 7.0 0.00 0.07 0.00 78 1014.4
20260508064020 50 312 4.3 7.0 0.00 0.07 0.00 78 1014.4
20260508063919 50 310 4.3 7.0 0.00 0.07 0.00 78 1014.3
20260508063818 50 325 4.3 7.0 0.00 0.07 0.00 78 1014.3
20260508063719 50 307 4.3 7.0 0.00 0.07 0.00 78 1014.3
20260508063620 50 325 4.3 7.0 0.00 0.07 0.00 78 1014.3
20260508063519 50 299 4.3 7.0 0.00 0.07 0.00 78 1014.4
20260508063418 50 311 4.3 7.0 0.00 0.07 0.00 78 1014.3
20260508063320 50 323 4.3 7.0 0.00 0.07 0.00 78 1014.4
20260508063214 50 313 4.3 7.0 0.00 0.07 0.00 77 1014.4
20260508063114 51 314 3.5 7.0 0.00 0.07 0.00 77 1014.4
20260508063013 51 317 3.5 7.0 0.00 0.07 0.00 78 1014.4
20260508062912 51 309 3.5 7.0 0.00 0.07 0.00 77 1014.4
20260508062815 51 300 3.5 7.0 0.00 0.07 0.00 77 1014.3
20260508062708 51 298 3.5 7.0 0.00 0.07 0.00 77 1014.4
20260508062606 51 304 4.3 7.0 0.00 0.07 0.00 77 1014.3
20260508062508 51 313 4.3 7.8 0.00 0.07 0.00 77 1014.4
20260508062407 51 339 4.3 7.8 0.00 0.07 0.00 77 1014.4
20260508062307 51 305 4.3 7.8 0.00 0.07 0.00 77 1014.5
20260508062201 51 320 4.3 7.8 0.00 0.07 0.00 77 1014.4
20260508062100 51 302 4.3 7.8 0.00 0.07 0.00 76 1014.3
20260508062001 51 313 4.3 7.8 0.00 0.07 0.00 76 1014.3
20260508061901 51 316 4.3 7.8 0.00 0.07 0.00 76 1014.4
20260508061800 51 313 4.3 7.8 0.00 0.07 0.00 76 1014.4
20260508061700 51 313 4.3 7.8 0.00 0.07 0.00 76 1014.4
20260508061600 51 310 5.2 7.8 0.00 0.07 0.00 76 1014.3
20260508061501 51 319 5.2 9.6 0.00 0.07 0.00 76 1014.3
20260508061400 51 297 5.2 9.6 0.00 0.07 0.00 75 1014.4
20260508061301 51 325 5.2 9.6 0.00 0.07 0.00 75 1014.2
20260508061200 51 323 5.2 9.6 0.00 0.07 0.00 75 1014.4
20260508061100 51 322 6.1 9.6 0.00 0.07 0.00 75 1014.4
20260508061001 51 335 6.1 9.6 0.00 0.07 0.00 75 1014.5
20260508060900 51 328 6.1 9.6 0.00 0.07 0.00 75 1014.4
20260508060801 51 317 6.1 9.6 0.00 0.07 0.00 75 1014.5
20260508060702 51 293 6.1 9.6 0.00 0.07 0.00 75 1014.5
20260508060602 51 311 6.1 9.6 0.00 0.07 0.00 75 1014.4
20260508060454 51 289 7.0 9.6 0.00 0.07 0.00 75 1014.4
20260508060356 51 298 7.0 10.4 0.00 0.07 0.00 75 1014.3
20260508060255 51 311 7.0 10.4 0.00 0.07 0.00 75 1014.4
20260508060156 51 313 7.0 10.4 0.00 0.07 0.00 75 1014.4
20260508060053 51 302 7.0 10.4 0.00 0.07 0.00 75 1014.4
20260508055953 51 300 7.0 10.4 0.00 0.07 0.00 75 1014.4
20260508055852 51 301 7.0 10.4 0.00 0.07 0.00 75 1014.3
20260508055753 51 303 7.0 10.4 0.00 0.07 0.00 75 1014.3
20260508055652 51 299 6.1 10.4 0.00 0.07 0.00 75 1014.3
20260508055553 51 309 6.1 10.4 0.00 0.07 0.00 75 1014.2
20260508055453 51 316 6.1 10.4 0.00 0.07 0.00 75 1014.3
20260508055352 51 303 6.1 9.6 0.00 0.07 0.00 75 1014.3
20260508055253 51 302 5.2 9.6 0.00 0.07 0.00 75 1014.3
20260508055152 51 310 5.2 9.6 0.00 0.07 0.00 75 1014.4
20260508055053 51 293 5.2 9.6 0.00 0.07 0.00 75 1014.3
20260508054954 51 315 5.2 9.6 0.00 0.07 0.00 75 1014.3
20260508054854 51 306 5.2 8.7 0.00 0.07 0.00 75 1014.4
20260508054744 51 313 5.2 8.7 0.00 0.07 0.00 75 1014.5
20260508054645 51 302 5.2 8.7 0.00 0.07 0.00 75 1014.5
20260508054544 51 313 5.2 8.7 0.00 0.07 0.00 75 1014.5
20260508054445 51 309 5.2 7.8 0.00 0.07 0.00 75 1014.4
20260508054245 52 315 6.1 8.7 0.00 0.07 0.00 75 1014.4
20260508054145 52 285 6.1 10.4 0.00 0.07 0.00 75 1014.5
20260508054045 52 292 6.1 10.4 0.00 0.07 0.00 75 1014.3
20260508053951 52 306 6.1 10.4 0.00 0.07 0.00 75 1014.3
20260508053844 52 307 7.0 10.4 0.00 0.07 0.00 75 1014.2
20260508053746 52 306 7.0 11.3 0.00 0.07 0.00 75 1014.2
20260508053642 52 309 7.0 11.3 0.00 0.07 0.00 75 1014.3
20260508053543 52 325 7.0 11.3 0.00 0.07 0.00 75 1014.2
20260508053444 52 307 7.0 11.3 0.00 0.07 0.00 75 1014.2
20260508053343 52 279 7.0 11.3 0.00 0.07 0.00 75 1014.2
20260508053243 52 303 7.8 11.3 0.00 0.07 0.00 75 1014.2
20260508053143 52 305 7.8 11.3 0.00 0.07 0.00 75 1014.2
20260508053038 52 290 7.8 11.3 0.00 0.07 0.00 75 1014.2
20260508052938 52 324 7.8 11.3 0.00 0.07 0.00 74 1014.2
20260508052838 52 304 7.8 13.9 0.00 0.07 0.00 75 1014.2
20260508052736 52 314 7.8 13.9 0.00 0.07 0.00 75 1014.2
20260508052638 52 305 7.8 13.9 0.00 0.07 0.00 75 1014.2
20260508052532 52 292 7.8 13.9 0.00 0.07 0.00 75 1014.2
20260508052432 52 302 8.7 13.9 0.00 0.07 0.00 75 1014.2
20260508052331 52 295 8.7 13.9 0.00 0.07 0.00 75 1014.3
20260508052232 52 294 8.7 13.9 0.00 0.07 0.00 75 1014.2
20260508052131 52 292 8.7 13.9 0.00 0.07 0.00 75 1014.1
20260508052027 52 310 8.7 13.9 0.00 0.08 0.00 75 1014.2
20260508051927 52 300 8.7 13.9 0.00 0.08 0.00 76 1014.1
20260508051826 52 312 7.8 11.3 0.00 0.08 0.00 76 1014.1
20260508051726 52 304 7.8 11.3 0.00 0.08 0.00 76 1014.1
20260508051627 52 328 7.8 11.3 0.00 0.08 0.00 76 1014.1
20260508051526 52 281 7.8 11.3 0.00 0.08 0.00 76 1014.0
20260508051427 52 306 7.8 11.3 0.00 0.08 0.00 76 1014.0
20260508051326 52 312 7.8 11.3 0.00 0.08 0.00 76 1014.0
20260508051225 52 342 7.8 11.3 0.00 0.08 0.00 76 1014.1
20260508051124 51 286 7.8 11.3 0.00 0.08 0.00 76 1014.0
20260508051026 51 297 7.0 11.3 0.00 0.08 0.00 76 1014.0
20260508050925 52 306 7.0 11.3 0.00 0.08 0.00 76 1014.0
20260508050824 52 319 7.8 11.3 0.00 0.08 0.00 76 1014.0
20260508050724 52 319 7.8 11.3 0.00 0.08 0.00 76 1014.0
20260508050624 52 288 7.8 11.3 0.00 0.08 0.00 76 1014.0
20260508050526 52 324 7.8 12.2 0.00 0.08 0.00 76 1014.0
20260508050426 52 296 7.8 12.2 0.00 0.08 0.00 76 1014.0
20260508050325 52 318 7.8 12.2 0.00 0.08 0.00 76 1013.9
20260508050225 52 337 7.0 12.2 0.00 0.08 0.00 76 1014.1
20260508050120 52 325 7.0 12.2 0.00 0.08 0.00 76 1014.0
20260508050021 52 327 7.0 12.2 0.00 0.08 0.00 76 1014.1
20260508045922 52 300 7.0 12.2 0.00 0.08 0.00 76 1014.1
20260508045819 52 325 7.0 12.2 0.00 0.08 0.00 76 1014.1
20260508045718 52 350 7.0 12.2 0.00 0.08 0.00 76 1014.1
20260508045620 52 318 7.0 12.2 0.00 0.08 0.00 76 1014.1
20260508045518 52 292 6.1 9.6 0.00 0.08 0.00 76 1014.1
20260508045418 52 317 6.1 9.6 0.00 0.08 0.00 76 1014.1
20260508045319 52 316 6.1 9.6 0.00 0.08 0.00 76 1014.1
20260508045218 52 306 5.2 9.6 0.00 0.08 0.00 76 1014.1
20260508045120 52 332 5.2 9.6 0.00 0.08 0.00 76 1014.0
20260508045019 52 325 5.2 9.6 0.00 0.08 0.00 76 1014.1
20260508044918 52 332 5.2 9.6 0.00 0.08 0.00 76 1014.0
20260508044818 52 350 5.2 9.6 0.00 0.08 0.00 75 1014.0
20260508044719 52 324 4.3 9.6 0.00 0.08 0.00 75 1014.1
20260508044618 52 313 4.3 9.6 0.00 0.08 0.00 75 1014.1
20260508044519 52 316 4.3 9.6 0.00 0.08 0.00 75 1014.0
20260508044418 52 321 4.3 9.6 0.00 0.08 0.00 75 1014.1
20260508044319 52 355 4.3 9.6 0.00 0.08 0.00 75 1014.0
20260508044215 52 348 5.2 9.6 0.00 0.08 0.00 75 1014.0
20260508044116 52 312 4.3 9.6 0.00 0.08 0.00 75 1014.0
20260508044015 52 315 4.3 9.6 0.00 0.08 0.00 75 1014.1
20260508043915 52 313 4.3 9.6 0.00 0.08 0.00 75 1014.0
20260508043816 52 325 4.3 9.6 0.00 0.08 0.00 75 1014.0
20260508043714 52 315 4.3 9.6 0.00 0.08 0.00 75 1014.0
20260508043616 52 311 4.3 7.8 0.00 0.08 0.00 75 1014.0
20260508043515 52 340 3.5 7.8 0.00 0.08 0.00 75 1014.1
20260508043414 52 313 3.5 7.0 0.00 0.08 0.00 75 1014.1
20260508043315 52 312 3.5 7.0 0.00 0.08 0.00 75 1014.1
20260508043215 52 324 2.6 7.0 0.00 0.08 0.00 75 1014.2
20260508043114 52 318 2.6 5.2 0.00 0.08 0.00 75 1014.2
20260508043015 52 330 2.6 5.2 0.00 0.08 0.00 75 1014.1
20260508042914 52 323 2.6 5.2 0.00 0.08 0.00 74 1014.2
20260508042814 52 331 2.6 5.2 0.00 0.08 0.00 74 1014.1
20260508042716 52 320 2.6 5.2 0.00 0.09 0.00 74 1014.2
20260508042615 52 319 3.5 6.1 0.00 0.09 0.00 74 1014.2
20260508042515 52 314 3.5 6.1 0.00 0.09 0.00 74 1014.2
20260508042414 52 312 3.5 6.1 0.00 0.09 0.00 74 1014.3
20260508042316 52 310 3.5 6.1 0.00 0.09 0.00 74 1014.1
20260508042215 52 323 3.5 6.1 0.00 0.09 0.00 74 1014.1
20260508042114 52 280 3.5 6.1 0.00 0.09 0.00 74 1014.2
20260508042015 52 290 3.5 6.1 0.00 0.09 0.00 75 1014.1
20260508041914 52 288 3.5 6.1 0.00 0.09 0.00 74 1014.1
20260508041816 52 298 3.5 6.1 0.00 0.09 0.00 74 1014.1
20260508041716 52 303 3.5 6.1 0.00 0.09 0.00 75 1014.1
20260508041616 52 309 3.5 6.1 0.00 0.09 0.00 75 1014.1
20260508041514 52 302 3.5 6.1 0.00 0.09 0.00 75 1014.1
20260508041415 52 298 3.5 6.1 0.00 0.09 0.00 75 1014.0
20260508041314 52 292 3.5 6.1 0.00 0.09 0.00 75 1014.1
20260508041215 52 301 3.5 6.1 0.00 0.09 0.00 75 1014.1
20260508041114 52 326 3.5 6.1 0.00 0.09 0.00 75 1014.1
20260508041015 52 318 2.6 6.1 0.00 0.09 0.00 74 1014.2
20260508040912 52 312 2.6 6.1 0.00 0.09 0.00 74 1014.1
20260508040810 52 309 2.6 6.1 0.00 0.09 0.00 74 1014.0
20260508040712 52 281 3.5 7.0 0.00 0.09 0.00 74 1014.0
20260508040610 52 296 3.5 7.0 0.00 0.09 0.00 74 1014.0
20260508040510 52 295 3.5 7.0 0.00 0.09 0.00 74 1014.0
20260508040411 52 315 3.5 7.0 0.00 0.09 0.00 75 1013.9
20260508040310 52 298 3.5 7.8 0.00 0.09 0.00 75 1014.1
20260508040211 52 299 3.5 7.8 0.00 0.09 0.00 75 1013.9
20260508040110 52 300 4.3 7.8 0.00 0.09 0.00 74 1014.0
20260508040010 52 301 4.3 7.8 0.00 0.09 0.00 74 1014.0
20260508035910 52 304 4.3 7.8 0.00 0.09 0.09 74 1014.0
20260508035808 52 302 4.3 7.8 0.00 0.09 0.09 74 1013.9
20260508035710 52 327 4.3 7.8 0.00 0.09 0.09 74 1013.9
20260508035608 52 306 4.3 7.8 0.00 0.09 0.09 74 1013.9
20260508035510 52 298 4.3 7.8 0.00 0.09 0.09 74 1013.9
20260508035409 52 293 4.3 7.8 0.00 0.09 0.09 74 1013.9
20260508035308 52 321 4.3 7.0 0.00 0.09 0.09 74 1013.9
20260508035209 52 318 4.3 7.0 0.00 0.09 0.09 74 1013.9
20260508035108 52 288 3.5 7.0 0.00 0.09 0.09 74 1014.0
20260508035010 52 311 3.5 7.0 0.00 0.09 0.09 74 1013.8
20260508034910 52 304 3.5 7.0 0.00 0.09 0.09 74 1013.9
20260508034808 52 277 3.5 6.1 0.00 0.09 0.09 74 1013.8
20260508034710 52 295 2.6 6.1 0.00 0.09 0.09 74 1013.9
20260508034609 52 311 2.6 6.1 0.00 0.09 0.09 74 1013.8
20260508034502 52 302 2.6 5.2 0.00 0.09 0.09 74 1013.9
20260508034403 52 301 2.6 4.3 0.00 0.09 0.09 74 1013.9
20260508034302 52 294 2.6 4.3 0.00 0.09 0.09 74 1013.8
20260508034203 52 318 2.6 4.3 0.00 0.09 0.09 75 1013.9
20260508034104 52 292 2.6 7.0 0.00 0.09 0.09 76 1013.9
20260508033957 52 291 2.6 7.0 0.00 0.09 0.09 76 1013.8
20260508033856 52 291 2.6 7.0 0.00 0.09 0.09 74 1013.9
20260508033757 52 291 2.6 7.0 0.00 0.09 0.09 74 1013.8
20260508033657 52 290 2.6 7.0 0.00 0.09 0.09 74 1013.8
20260508033558 52 296 2.6 8.7 0.00 0.09 0.09 74 1013.9
20260508033453 52 296 3.5 8.7 0.00 0.09 0.09 74 1013.9
20260508033352 52 297 3.5 8.7 0.00 0.09 0.09 74 1013.9
20260508033252 52 311 3.5 8.7 0.00 0.09 0.09 74 1013.8
20260508033149 52 313 3.5 8.7 0.00 0.09 0.09 74 1013.8
20260508033048 52 317 2.6 8.7 0.00 0.09 0.09 74 1013.8
20260508032948 52 300 2.6 8.7 0.00 0.09 0.09 74 1013.8
20260508032850 52 311 2.6 8.7 0.00 0.09 0.09 74 1013.7
20260508032746 52 311 2.6 8.7 0.00 0.09 0.09 74 1013.8
20260508032647 52 309 2.6 8.7 0.00 0.09 0.09 74 1013.9
20260508032547 52 292 2.6 5.2 0.00 0.09 0.09 74 1013.9
20260508032445 52 292 2.6 5.2 0.00 0.09 0.09 74 1013.8
20260508032343 52 267 2.6 6.1 0.00 0.09 0.09 74 1013.8
20260508032244 52 292 2.6 6.1 0.00 0.09 0.09 74 1013.8
20260508032142 52 291 2.6 6.1 0.00 0.09 0.09 74 1013.8
20260508032043 52 301 2.6 7.0 0.00 0.09 0.09 74 1013.8
20260508031944 52 292 3.5 7.0 0.00 0.09 0.09 74 1013.8
20260508031841 52 292 3.5 7.0 0.00 0.09 0.09 75 1013.8
20260508031741 52 292 3.5 7.0 0.00 0.09 0.09 74 1013.8
20260508031641 52 292 3.5 7.0 0.00 0.09 0.09 73 1013.8
20260508031541 52 292 4.3 7.0 0.00 0.09 0.09 73 1013.8
20260508031442 52 282 4.3 7.0 0.00 0.09 0.09 73 1013.9
20260508031341 52 289 4.3 7.0 0.00 0.09 0.09 73 1013.9
20260508031234 52 289 4.3 7.0 0.00 0.09 0.09 73 1013.9
20260508031135 52 308 4.3 7.0 0.00 0.09 0.09 73 1013.9
20260508031035 52 313 3.5 6.1 0.00 0.09 0.09 73 1013.8
20260508030935 52 294 4.3 6.1 0.00 0.09 0.09 73 1013.8
20260508030835 52 307 4.3 6.1 0.00 0.09 0.09 73 1013.8
20260508030729 52 306 4.3 7.0 0.00 0.09 0.09 73 1013.9
20260508030629 52 299 4.3 8.7 0.00 0.09 0.09 73 1013.8
20260508030529 52 298 4.3 8.7 0.00 0.09 0.09 73 1013.8
20260508030429 52 297 4.3 8.7 0.00 0.09 0.09 73 1013.8
20260508030330 52 296 4.3 8.7 0.00 0.09 0.09 73 1013.8
20260508030226 53 298 4.3 8.7 0.00 0.09 0.09 73 1013.7
20260508030124 52 329 5.2 8.7 0.00 0.09 0.09 73 1013.8
20260508030024 52 298 5.2 8.7 0.00 0.09 0.09 73 1013.7
20260508025924 53 286 5.2 8.7 0.00 0.09 0.09 73 1013.8
20260508025825 53 311 6.1 8.7 0.00 0.09 0.09 72 1013.7
20260508025724 53 311 6.1 8.7 0.00 0.09 0.09 73 1013.5
20260508025624 53 299 6.1 8.7 0.00 0.09 0.09 73 1013.5
20260508025525 53 313 6.1 8.7 0.00 0.09 0.09 73 1013.5
20260508025426 53 292 6.1 9.6 0.00 0.09 0.09 72 1013.5
20260508025323 53 320 6.1 9.6 0.00 0.09 0.09 72 1013.4
20260508025224 53 296 7.0 9.6 0.00 0.09 0.09 72 1013.5
20260508025121 53 315 7.0 9.6 0.00 0.09 0.09 72 1013.5
20260508025020 53 300 7.0 9.6 0.00 0.09 0.09 72 1013.4
20260508024920 53 304 7.0 10.4 0.00 0.09 0.09 73 1013.4
20260508024821 53 308 7.0 10.4 0.00 0.09 0.09 73 1013.4
20260508024721 53 303 7.0 10.4 0.00 0.09 0.09 72 1013.4
20260508024621 53 283 6.1 10.4 0.00 0.09 0.09 72 1013.4
20260508024514 53 319 6.1 10.4 0.00 0.09 0.09 72 1013.3
20260508024414 53 315 7.0 10.4 0.00 0.09 0.09 72 1013.3
20260508024315 53 269 7.0 10.4 0.00 0.09 0.09 72 1013.3
20260508024215 53 317 7.0 10.4 0.00 0.09 0.09 73 1013.3
20260508024114 53 284 7.0 11.3 0.00 0.09 0.09 72 1013.3
20260508024014 53 315 7.0 11.3 0.00 0.09 0.09 73 1013.3
20260508023915 53 293 7.0 11.3 0.00 0.10 0.09 72 1013.3
20260508023814 53 305 7.0 11.3 0.00 0.10 0.09 72 1013.3
20260508023716 53 321 7.0 11.3 0.00 0.10 0.09 73 1013.3
20260508023616 53 321 7.0 11.3 0.00 0.10 0.09 73 1013.2
20260508023515 53 302 7.0 11.3 0.00 0.10 0.09 72 1013.3
20260508023412 53 309 7.0 11.3 0.00 0.10 0.09 73 1013.3
20260508023312 52 298 7.0 11.3 0.00 0.10 0.09 73 1013.2
20260508023212 52 317 6.1 11.3 0.00 0.11 0.09 73 1013.2
20260508023112 52 287 6.1 9.6 0.00 0.11 0.09 73 1013.3
20260508023014 52 290 6.1 9.6 0.00 0.11 0.09 73 1013.2
20260508022912 52 304 6.1 9.6 0.00 0.11 0.09 73 1013.2
20260508022810 52 289 6.1 9.6 0.00 0.11 0.09 73 1013.2
20260508022708 52 290 6.1 9.6 0.00 0.11 0.09 73 1013.2
20260508022609 52 297 6.1 9.6 0.00 0.11 0.09 73 1013.2
20260508022508 52 294 6.1 9.6 0.00 0.11 0.09 73 1013.3
20260508022408 52 299 6.1 9.6 0.00 0.11 0.09 73 1013.2
20260508022308 52 298 6.1 9.6 0.00 0.11 0.09 73 1013.2
20260508022208 52 306 6.1 9.6 0.00 0.11 0.09 73 1013.3
20260508022109 52 318 6.1 9.6 0.00 0.11 0.09 73 1013.3
20260508022010 52 325 6.1 9.6 0.00 0.11 0.09 73 1013.2
20260508021909 52 290 6.1 9.6 0.00 0.11 0.09 73 1013.2
20260508021808 52 307 6.1 9.6 0.00 0.11 0.09 73 1013.2
20260508021708 52 297 6.1 12.2 0.00 0.12 0.09 73 1013.2
20260508021609 52 304 6.1 12.2 0.00 0.12 0.09 73 1013.1
20260508021509 52 290 6.1 12.2 0.00 0.12 0.09 73 1013.1
20260508021409 52 319 7.0 12.2 0.00 0.12 0.09 73 1013.1